Wetterdaten: Donnerstag, 01.04.2010
Datum Zeit Temp. Innen Temp. Aussen UV X Diff Temp. Feuchte Inne Feuchte Auss Sonnenschein Luftdruck Regen ab 0,1 Wind Sonnenschein Windben
01.04.2010 00:00 15,0 C 5,4 C 0,0 UV-I 0,0 C 46 % 79 % 0 % 1000,7 hPa 0,0 l/m 8,4 km/h (2 Bft) 0 min 7,2 km/h (2 Bft)
01.04.2010 00:04 15,0 C 5,4 C 0,0 UV-I 0,0 C 46 % 78 % 0 % 1000,7 hPa 0,0 l/m 9,2 km/h (2 Bft) 0 min 14,9 km/h (3 Bft)
01.04.2010 00:06 14,8 C 5,5 C 0,0 UV-I 0,0 C 46 % 78 % 0 % 1000,7 hPa 0,0 l/m 11,2 km/h (2 Bft) 0 min 10,1 km/h (2 Bft)
01.04.2010 00:08 14,8 C 5,5 C 0,0 UV-I 0,0 C 46 % 78 % 0 % 1000,7 hPa 0,0 l/m 12,4 km/h (3 Bft) 0 min 10,1 km/h (2 Bft)
01.04.2010 00:10 14,8 C 5,5 C 0,0 UV-I 0,0 C 46 % 78 % 0 % 1000,7 hPa 0,0 l/m 13,3 km/h (3 Bft) 0 min 18,5 km/h (3 Bft)
01.04.2010 00:12 14,8 C 5,5 C 0,0 UV-I 0,0 C 46 % 78 % 0 % 1000,8 hPa 0,0 l/m 14,5 km/h (3 Bft) 0 min 6,3 km/h (2 Bft)
01.04.2010 00:14 14,8 C 5,5 C 0,0 UV-I 0,0 C 46 % 78 % 0 % 1000,8 hPa 0,0 l/m 14,5 km/h (3 Bft) 0 min 16,6 km/h (3 Bft)
01.04.2010 00:16 14,8 C 5,5 C 0,0 UV-I 0,0 C 46 % 78 % 0 % 1000,8 hPa 0,0 l/m 14,5 km/h (3 Bft) 0 min 6,7 km/h (2 Bft)
01.04.2010 00:18 14,9 C 5,4 C 0,0 UV-I 0,0 C 46 % 77 % 0 % 1000,8 hPa 0,0 l/m 16,5 km/h (3 Bft) 0 min 14,7 km/h (3 Bft)
01.04.2010 00:20 14,9 C 5,5 C 0,0 UV-I 0,0 C 45 % 77 % 0 % 1000,8 hPa 0,0 l/m 16,5 km/h (3 Bft) 0 min 31,0 km/h (5 Bft)
01.04.2010 00:22 14,9 C 5,5 C 0,0 UV-I 0,0 C 45 % 76 % 0 % 1000,8 hPa 0,0 l/m 17,3 km/h (3 Bft) 0 min 7,7 km/h (2 Bft)
01.04.2010 00:24 14,9 C 5,5 C 0,0 UV-I 0,0 C 45 % 76 % 0 % 1000,8 hPa 0,0 l/m 17,3 km/h (3 Bft) 0 min 5,5 km/h (1 Bft)
01.04.2010 00:26 14,8 C 5,5 C 0,0 UV-I 0,0 C 45 % 76 % 0 % 1000,8 hPa 0,0 l/m 18,1 km/h (3 Bft) 0 min 12,5 km/h (3 Bft)
01.04.2010 00:28 14,8 C 5,5 C 0,0 UV-I 0,0 C 45 % 76 % 0 % 1000,8 hPa 0,0 l/m 17,3 km/h (3 Bft) 0 min 7,5 km/h (2 Bft)
01.04.2010 00:30 14,8 C 5,5 C 0,0 UV-I 0,0 C 45 % 75 % 0 % 1000,8 hPa 0,0 l/m 17,7 km/h (3 Bft) 0 min 34,9 km/h (5 Bft)
01.04.2010 00:32 14,8 C 5,5 C 0,0 UV-I 0,0 C 45 % 75 % 0 % 1000,9 hPa 0,0 l/m 18,5 km/h (3 Bft) 0 min 20,2 km/h (4 Bft)
01.04.2010 00:34 14,8 C 5,4 C 0,0 UV-I 0,0 C 45 % 75 % 0 % 1000,9 hPa 0,0 l/m 19,3 km/h (3 Bft) 0 min 12,0 km/h (2 Bft)
01.04.2010 00:36 14,8 C 5,5 C 0,0 UV-I 0,0 C 45 % 75 % 0 % 1000,9 hPa 0,0 l/m 18,5 km/h (3 Bft) 0 min 9,6 km/h (2 Bft)
01.04.2010 00:38 14,8 C 5,5 C 0,0 UV-I 0,0 C 45 % 75 % 0 % 1000,9 hPa 0,0 l/m 17,7 km/h (3 Bft) 0 min 7,9 km/h (2 Bft)
01.04.2010 00:40 14,8 C 5,5 C 0,0 UV-I 0,0 C 45 % 74 % 0 % 1000,9 hPa 0,0 l/m 16,9 km/h (3 Bft) 0 min 13,2 km/h (3 Bft)
01.04.2010 00:42 14,8 C 5,5 C 0,0 UV-I 0,0 C 45 % 74 % 0 % 1000,9 hPa 0,0 l/m 16,9 km/h (3 Bft) 0 min 22,9 km/h (4 Bft)
01.04.2010 00:44 14,8 C 5,4 C 0,0 UV-I 0,0 C 45 % 74 % 0 % 1000,9 hPa 0,0 l/m 16,1 km/h (3 Bft) 0 min 11,8 km/h (2 Bft)
01.04.2010 00:46 14,8 C 5,5 C 0,0 UV-I 0,0 C 45 % 74 % 0 % 1000,9 hPa 0,0 l/m 14,9 km/h (3 Bft) 0 min 8,4 km/h (2 Bft)
01.04.2010 00:48 14,8 C 5,5 C 0,0 UV-I 0,0 C 45 % 74 % 0 % 1000,9 hPa 0,0 l/m 17,3 km/h (3 Bft) 0 min 10,3 km/h (2 Bft)
01.04.2010 00:50 14,8 C 5,5 C 0,0 UV-I 0,0 C 45 % 74 % 0 % 1000,9 hPa 0,0 l/m 17,7 km/h (3 Bft) 0 min 21,4 km/h (4 Bft)
01.04.2010 00:52 14,8 C 5,5 C 0,0 UV-I 0,0 C 45 % 74 % 0 % 1000,8 hPa 0,0 l/m 17,7 km/h (3 Bft) 0 min 14,2 km/h (3 Bft)
01.04.2010 00:54 14,8 C 5,3 C 0,0 UV-I 0,0 C 45 % 74 % 0 % 1000,8 hPa 0,0 l/m 17,3 km/h (3 Bft) 0 min 13,0 km/h (3 Bft)
01.04.2010 00:56 14,6 C 5,4 C 0,0 UV-I 0,0 C 45 % 74 % 0 % 1000,8 hPa 0,0 l/m 16,9 km/h (3 Bft) 0 min 9,9 km/h (2 Bft)
01.04.2010 00:58 14,8 C 5,3 C 0,0 UV-I 0,0 C 45 % 74 % 0 % 1000,8 hPa 0,0 l/m 14,9 km/h (3 Bft) 0 min 4,3 km/h (1 Bft)
01.04.2010 01:00 14,6 C 5,3 C 0,0 UV-I 0,0 C 45 % 74 % 0 % 1000,8 hPa 0,0 l/m 13,7 km/h (3 Bft) 0 min 5,5 km/h (1 Bft)
01.04.2010 01:02 14,6 C 5,3 C 0,0 UV-I 0,0 C 45 % 74 % 0 % 1000,8 hPa 0,0 l/m 12,0 km/h (2 Bft) 0 min 10,6 km/h (2 Bft)
01.04.2010 01:04 14,6 C 5,3 C 0,0 UV-I 0,0 C 45 % 74 % 0 % 1000,8 hPa 0,0 l/m 11,6 km/h (2 Bft) 0 min 11,8 km/h (2 Bft)
01.04.2010 01:06 14,6 C 5,3 C 0,0 UV-I 0,0 C 45 % 74 % 0 % 1000,8 hPa 0,0 l/m 12,4 km/h (3 Bft) 0 min 12,8 km/h (3 Bft)
01.04.2010 01:08 14,6 C 5,3 C 0,0 UV-I 0,0 C 45 % 74 % 0 % 1000,8 hPa 0,0 l/m 12,8 km/h (3 Bft) 0 min 13,2 km/h (3 Bft)
01.04.2010 01:10 14,6 C 5,3 C 0,0 UV-I 0,0 C 45 % 75 % 0 % 1000,8 hPa 0,0 l/m 12,0 km/h (2 Bft) 0 min 2,9 km/h (1 Bft)
01.04.2010 01:12 14,7 C 5,2 C 0,0 UV-I 0,0 C 45 % 75 % 0 % 1000,8 hPa 0,0 l/m 13,7 km/h (3 Bft) 0 min 8,9 km/h (2 Bft)
01.04.2010 01:14 14,7 C 5,2 C 0,0 UV-I 0,0 C 45 % 75 % 0 % 1000,8 hPa 0,0 l/m 14,5 km/h (3 Bft) 0 min 16,8 km/h (3 Bft)
01.04.2010 01:16 14,6 C 5,3 C 0,0 UV-I 0,0 C 45 % 75 % 0 % 1000,8 hPa 0,0 l/m 14,1 km/h (3 Bft) 0 min 6,0 km/h (2 Bft)
01.04.2010 01:18 14,7 C 5,3 C 0,0 UV-I 0,0 C 45 % 75 % 0 % 1000,8 hPa 0,0 l/m 14,9 km/h (3 Bft) 0 min 28,4 km/h (4 Bft)
01.04.2010 01:20 14,7 C 5,3 C 0,0 UV-I 0,0 C 45 % 75 % 0 % 1000,8 hPa 0,0 l/m 17,7 km/h (3 Bft) 0 min 17,8 km/h (3 Bft)
01.04.2010 01:22 14,7 C 5,3 C 0,0 UV-I 0,0 C 44 % 75 % 0 % 1000,8 hPa 0,0 l/m 19,7 km/h (3 Bft) 0 min 19,5 km/h (3 Bft)
01.04.2010 01:26 14,7 C 5,3 C 0,0 UV-I 0,0 C 44 % 75 % 0 % 1000,8 hPa 0,0 l/m 20,5 km/h (4 Bft) 0 min 20,5 km/h (4 Bft)
01.04.2010 01:28 14,7 C 5,4 C 0,0 UV-I 0,0 C 44 % 75 % 0 % 1000,8 hPa 0,0 l/m 20,9 km/h (4 Bft) 0 min 15,6 km/h (3 Bft)
01.04.2010 01:30 14,6 C 5,3 C 0,0 UV-I 0,0 C 45 % 76 % 0 % 1000,8 hPa 0,0 l/m 18,1 km/h (3 Bft) 0 min 13,5 km/h (3 Bft)
01.04.2010 01:32 14,6 C 5,3 C 0,0 UV-I 0,0 C 44 % 76 % 0 % 1001,1 hPa 0,0 l/m 18,9 km/h (3 Bft) 0 min 19,2 km/h (3 Bft)
01.04.2010 01:34 14,6 C 5,3 C 0,0 UV-I 0,0 C 44 % 76 % 0 % 1001,1 hPa 0,0 l/m 18,1 km/h (3 Bft) 0 min 27,2 km/h (4 Bft)
01.04.2010 01:36 14,6 C 5,3 C 0,0 UV-I 0,0 C 45 % 75 % 0 % 1001,1 hPa 0,0 l/m 17,3 km/h (3 Bft) 0 min 7,9 km/h (2 Bft)
01.04.2010 01:38 14,6 C 5,3 C 0,0 UV-I 0,0 C 45 % 76 % 0 % 1001,1 hPa 0,0 l/m 18,9 km/h (3 Bft) 0 min 8,2 km/h (2 Bft)
01.04.2010 01:42 14,6 C 5,3 C 0,0 UV-I 0,0 C 44 % 76 % 0 % 1001,1 hPa 0,0 l/m 17,7 km/h (3 Bft) 0 min 21,2 km/h (4 Bft)
01.04.2010 01:44 14,6 C 5,3 C 0,0 UV-I 0,0 C 45 % 76 % 0 % 1001,1 hPa 0,0 l/m 16,9 km/h (3 Bft) 0 min 13,2 km/h (3 Bft)
01.04.2010 01:46 14,6 C 5,3 C 0,0 UV-I 0,0 C 44 % 75 % 0 % 1001,1 hPa 0,0 l/m 16,9 km/h (3 Bft) 0 min 11,8 km/h (2 Bft)
01.04.2010 01:48 14,6 C 5,3 C 0,0 UV-I 0,0 C 44 % 75 % 0 % 1001,1 hPa 0,0 l/m 17,3 km/h (3 Bft) 0 min 19,2 km/h (3 Bft)
01.04.2010 01:50 14,6 C 5,3 C 0,0 UV-I 0,0 C 45 % 75 % 0 % 1001,1 hPa 0,0 l/m 17,3 km/h (3 Bft) 0 min 15,2 km/h (3 Bft)
01.04.2010 01:52 14,6 C 5,3 C 0,0 UV-I 0,0 C 45 % 75 % 0 % 1000,8 hPa 0,0 l/m 16,1 km/h (3 Bft) 0 min 11,8 km/h (2 Bft)
01.04.2010 01:54 14,4 C 5,3 C 0,0 UV-I 0,0 C 45 % 75 % 0 % 1000,8 hPa 0,0 l/m 16,9 km/h (3 Bft) 0 min 18,3 km/h (3 Bft)
01.04.2010 01:56 14,4 C 5,3 C 0,0 UV-I 0,0 C 45 % 75 % 0 % 1000,8 hPa 0,0 l/m 17,7 km/h (3 Bft) 0 min 12,3 km/h (3 Bft)
01.04.2010 01:58 14,4 C 5,4 C 0,0 UV-I 0,0 C 44 % 75 % 0 % 1000,8 hPa 0,0 l/m 17,3 km/h (3 Bft) 0 min 8,4 km/h (2 Bft)
01.04.2010 02:00 14,4 C 5,4 C 0,0 UV-I 0,0 C 45 % 75 % 0 % 1000,8 hPa 0,0 l/m 16,9 km/h (3 Bft) 0 min 19,2 km/h (3 Bft)
01.04.2010 02:02 14,4 C 5,3 C 0,0 UV-I 0,0 C 45 % 74 % 0 % 1000,8 hPa 0,0 l/m 18,5 km/h (3 Bft) 0 min 25,0 km/h (4 Bft)
01.04.2010 02:04 14,4 C 5,4 C 0,0 UV-I 0,0 C 44 % 74 % 0 % 1000,8 hPa 0,0 l/m 18,9 km/h (3 Bft) 0 min 15,2 km/h (3 Bft)
01.04.2010 02:06 14,4 C 5,4 C 0,0 UV-I 0,0 C 44 % 74 % 0 % 1000,8 hPa 0,0 l/m 17,7 km/h (3 Bft) 0 min 4,3 km/h (1 Bft)
01.04.2010 02:08 14,4 C 5,4 C 0,0 UV-I 0,0 C 44 % 74 % 0 % 1000,8 hPa 0,0 l/m 16,9 km/h (3 Bft) 0 min 19,5 km/h (3 Bft)
01.04.2010 02:10 14,4 C 5,4 C 0,0 UV-I 0,0 C 44 % 75 % 0 % 1000,8 hPa 0,0 l/m 16,9 km/h (3 Bft) 0 min 7,9 km/h (2 Bft)
01.04.2010 02:12 14,5 C 5,3 C 0,0 UV-I 0,0 C 44 % 74 % 0 % 1001,1 hPa 0,0 l/m 16,9 km/h (3 Bft) 0 min 12,0 km/h (2 Bft)
01.04.2010 02:14 14,5 C 5,3 C 0,0 UV-I 0,0 C 44 % 75 % 0 % 1001,1 hPa 0,0 l/m 14,5 km/h (3 Bft) 0 min 7,2 km/h (2 Bft)
01.04.2010 02:16 14,4 C 5,3 C 0,0 UV-I 0,0 C 44 % 74 % 0 % 1001,1 hPa 0,0 l/m 14,1 km/h (3 Bft) 0 min 18,5 km/h (3 Bft)
01.04.2010 02:18 14,4 C 5,2 C 0,0 UV-I 0,0 C 45 % 74 % 0 % 1001,1 hPa 0,0 l/m 15,3 km/h (3 Bft) 0 min 9,6 km/h (2 Bft)
01.04.2010 02:20 14,5 C 5,2 C 0,0 UV-I 0,0 C 44 % 75 % 0 % 1001,1 hPa 0,0 l/m 15,3 km/h (3 Bft) 0 min 9,4 km/h (2 Bft)
01.04.2010 02:22 14,5 C 5,2 C 0,0 UV-I 0,0 C 44 % 75 % 0 % 1001,1 hPa 0,0 l/m 14,5 km/h (3 Bft) 0 min 10,3 km/h (2 Bft)
01.04.2010 02:24 14,5 C 5,3 C 0,0 UV-I 0,0 C 44 % 75 % 0 % 1001,1 hPa 0,0 l/m 14,9 km/h (3 Bft) 0 min 12,0 km/h (2 Bft)
01.04.2010 02:26 14,5 C 5,2 C 0,0 UV-I 0,0 C 44 % 75 % 0 % 1001,1 hPa 0,0 l/m 15,3 km/h (3 Bft) 0 min 8,2 km/h (2 Bft)
01.04.2010 02:28 14,3 C 5,3 C 0,0 UV-I 0,0 C 44 % 75 % 0 % 1001,1 hPa 0,0 l/m 14,5 km/h (3 Bft) 0 min 7,9 km/h (2 Bft)
01.04.2010 02:30 14,3 C 5,3 C 0,0 UV-I 0,0 C 44 % 75 % 0 % 1001,1 hPa 0,0 l/m 14,5 km/h (3 Bft) 0 min 8,9 km/h (2 Bft)
01.04.2010 02:32 14,3 C 5,2 C 0,0 UV-I 0,0 C 44 % 75 % 0 % 1001,3 hPa 0,0 l/m 14,1 km/h (3 Bft) 0 min 14,9 km/h (3 Bft)
01.04.2010 02:36 14,3 C 5,2 C 0,0 UV-I 0,0 C 45 % 75 % 0 % 1001,3 hPa 0,0 l/m 14,1 km/h (3 Bft) 0 min 16,6 km/h (3 Bft)
01.04.2010 02:38 14,3 C 5,3 C 0,0 UV-I 0,0 C 45 % 75 % 0 % 1001,3 hPa 0,0 l/m 15,3 km/h (3 Bft) 0 min 22,6 km/h (4 Bft)
01.04.2010 02:40 14,3 C 5,2 C 0,0 UV-I 0,0 C 44 % 75 % 0 % 1001,3 hPa 0,0 l/m 16,1 km/h (3 Bft) 0 min 13,7 km/h (3 Bft)
01.04.2010 02:42 14,3 C 5,2 C 0,0 UV-I 0,0 C 44 % 75 % 0 % 1001,3 hPa 0,0 l/m 15,7 km/h (3 Bft) 0 min 8,2 km/h (2 Bft)
01.04.2010 02:44 14,3 C 5,2 C 0,0 UV-I 0,0 C 45 % 75 % 0 % 1001,3 hPa 0,0 l/m 16,1 km/h (3 Bft) 0 min 10,3 km/h (2 Bft)
01.04.2010 02:46 14,3 C 5,2 C 0,0 UV-I 0,0 C 44 % 75 % 0 % 1001,3 hPa 0,0 l/m 15,3 km/h (3 Bft) 0 min 8,7 km/h (2 Bft)
01.04.2010 02:48 14,3 C 5,2 C 0,0 UV-I 0,0 C 45 % 75 % 0 % 1001,3 hPa 0,0 l/m 14,5 km/h (3 Bft) 0 min 10,1 km/h (2 Bft)
01.04.2010 02:50 14,3 C 5,2 C 0,0 UV-I 0,0 C 44 % 75 % 0 % 1001,3 hPa 0,0 l/m 14,1 km/h (3 Bft) 0 min 13,7 km/h (3 Bft)
01.04.2010 02:54 14,4 C 5,2 C 0,0 UV-I 0,0 C 44 % 75 % 0 % 1001,6 hPa 0,0 l/m 16,1 km/h (3 Bft) 0 min 8,2 km/h (2 Bft)
01.04.2010 02:58 14,4 C 5,3 C 0,0 UV-I 0,0 C 45 % 75 % 0 % 1001,6 hPa 0,0 l/m 18,9 km/h (3 Bft) 0 min 22,6 km/h (4 Bft)
01.04.2010 03:00 14,3 C 5,2 C 0,0 UV-I 0,0 C 44 % 75 % 0 % 1001,6 hPa 0,0 l/m 18,9 km/h (3 Bft) 0 min 17,8 km/h (3 Bft)
01.04.2010 03:02 14,4 C 5,2 C 0,0 UV-I 0,0 C 44 % 75 % 0 % 1001,6 hPa 0,0 l/m 18,5 km/h (3 Bft) 0 min 9,6 km/h (2 Bft)
01.04.2010 03:04 14,4 C 5,2 C 0,0 UV-I 0,0 C 44 % 75 % 0 % 1001,6 hPa 0,0 l/m 18,5 km/h (3 Bft) 0 min 9,6 km/h (2 Bft)
01.04.2010 03:06 14,4 C 5,3 C 0,0 UV-I 0,0 C 44 % 75 % 0 % 1001,6 hPa 0,0 l/m 17,7 km/h (3 Bft) 0 min 7,0 km/h (2 Bft)
01.04.2010 03:08 14,4 C 5,3 C 0,0 UV-I 0,0 C 44 % 75 % 0 % 1001,6 hPa 0,0 l/m 15,3 km/h (3 Bft) 0 min 7,2 km/h (2 Bft)
01.04.2010 03:10 14,4 C 5,3 C 0,0 UV-I 0,0 C 45 % 76 % 0 % 1001,6 hPa 0,0 l/m 14,1 km/h (3 Bft) 0 min 13,7 km/h (3 Bft)
01.04.2010 03:12 14,4 C 5,2 C 0,0 UV-I 0,0 C 44 % 75 % 0 % 1001,4 hPa 0,0 l/m 12,8 km/h (3 Bft) 0 min 12,3 km/h (3 Bft)
01.04.2010 03:14 14,4 C 5,2 C 0,0 UV-I 0,0 C 45 % 75 % 0 % 1001,4 hPa 0,0 l/m 12,8 km/h (3 Bft) 0 min 20,2 km/h (4 Bft)
01.04.2010 03:16 14,4 C 5,2 C 0,0 UV-I 0,0 C 45 % 75 % 0 % 1001,4 hPa 0,0 l/m 12,0 km/h (2 Bft) 0 min 8,9 km/h (2 Bft)
01.04.2010 03:18 14,4 C 5,2 C 0,0 UV-I 0,0 C 45 % 75 % 0 % 1001,4 hPa 0,0 l/m 12,0 km/h (2 Bft) 0 min 4,1 km/h (1 Bft)
01.04.2010 03:20 14,4 C 5,2 C 0,0 UV-I 0,0 C 45 % 75 % 0 % 1001,4 hPa 0,0 l/m 13,7 km/h (3 Bft) 0 min 20,5 km/h (4 Bft)
01.04.2010 03:22 14,4 C 5,2 C 0,0 UV-I 0,0 C 45 % 75 % 0 % 1001,4 hPa 0,0 l/m 14,1 km/h (3 Bft) 0 min 8,2 km/h (2 Bft)
01.04.2010 03:24 14,4 C 5,2 C 0,0 UV-I 0,0 C 45 % 75 % 0 % 1001,4 hPa 0,0 l/m 14,1 km/h (3 Bft) 0 min 17,6 km/h (3 Bft)
01.04.2010 03:26 14,2 C 5,2 C 0,0 UV-I 0,0 C 45 % 75 % 0 % 1001,4 hPa 0,0 l/m 14,5 km/h (3 Bft) 0 min 12,3 km/h (3 Bft)
01.04.2010 03:32 14,4 C 5,2 C 0,0 UV-I 0,0 C 44 % 75 % 0 % 1001,7 hPa 0,0 l/m 13,3 km/h (3 Bft) 0 min 9,4 km/h (2 Bft)
01.04.2010 03:34 14,4 C 5,2 C 0,0 UV-I 0,0 C 44 % 75 % 0 % 1001,7 hPa 0,0 l/m 13,7 km/h (3 Bft) 0 min 13,0 km/h (3 Bft)
01.04.2010 03:36 14,2 C 5,2 C 0,0 UV-I 0,0 C 44 % 75 % 0 % 1001,7 hPa 0,0 l/m 14,1 km/h (3 Bft) 0 min 23,6 km/h (4 Bft)
01.04.2010 03:38 14,2 C 5,2 C 0,0 UV-I 0,0 C 45 % 75 % 0 % 1001,7 hPa 0,0 l/m 14,5 km/h (3 Bft) 0 min 13,0 km/h (3 Bft)
01.04.2010 03:40 14,2 C 5,2 C 0,0 UV-I 0,0 C 45 % 75 % 0 % 1001,7 hPa 0,0 l/m 15,7 km/h (3 Bft) 0 min 13,0 km/h (3 Bft)
01.04.2010 03:42 14,2 C 5,2 C 0,0 UV-I 0,0 C 45 % 75 % 0 % 1001,7 hPa 0,0 l/m 16,5 km/h (3 Bft) 0 min 13,2 km/h (3 Bft)
01.04.2010 03:46 14,2 C 5,2 C 0,0 UV-I 0,0 C 45 % 75 % 0 % 1001,7 hPa 0,0 l/m 16,9 km/h (3 Bft) 0 min 14,0 km/h (3 Bft)
01.04.2010 03:48 14,3 C 5,1 C 0,0 UV-I 0,0 C 45 % 75 % 0 % 1001,7 hPa 0,0 l/m 16,1 km/h (3 Bft) 0 min 22,1 km/h (4 Bft)
01.04.2010 03:50 14,2 C 5,2 C 0,0 UV-I 0,0 C 44 % 75 % 0 % 1001,7 hPa 0,0 l/m 17,3 km/h (3 Bft) 0 min 12,0 km/h (2 Bft)
01.04.2010 03:52 14,3 C 5,1 C 0,0 UV-I 0,0 C 44 % 75 % 0 % 1002,0 hPa 0,0 l/m 18,5 km/h (3 Bft) 0 min 18,5 km/h (3 Bft)
01.04.2010 03:54 14,3 C 5,1 C 0,0 UV-I 0,0 C 44 % 75 % 0 % 1002,0 hPa 0,0 l/m 19,7 km/h (3 Bft) 0 min 16,4 km/h (3 Bft)
01.04.2010 03:56 14,3 C 5,1 C 0,0 UV-I 0,0 C 44 % 75 % 0 % 1002,0 hPa 0,0 l/m 20,5 km/h (4 Bft) 0 min 23,3 km/h (4 Bft)
01.04.2010 03:58 14,3 C 5,1 C 0,0 UV-I 0,0 C 44 % 75 % 0 % 1002,0 hPa 0,0 l/m 20,1 km/h (4 Bft) 0 min 9,6 km/h (2 Bft)
01.04.2010 04:00 14,3 C 5,1 C 0,0 UV-I 0,0 C 44 % 75 % 0 % 1002,0 hPa 0,0 l/m 18,9 km/h (3 Bft) 0 min 14,7 km/h (3 Bft)
01.04.2010 04:02 14,3 C 5,0 C 0,0 UV-I 0,0 C 44 % 75 % 0 % 1002,0 hPa 0,0 l/m 16,5 km/h (3 Bft) 0 min 10,6 km/h (2 Bft)
01.04.2010 04:04 14,1 C 5,0 C 0,0 UV-I 0,0 C 44 % 75 % 0 % 1002,0 hPa 0,0 l/m 14,9 km/h (3 Bft) 0 min 9,4 km/h (2 Bft)
01.04.2010 04:06 14,3 C 5,1 C 0,0 UV-I 0,0 C 44 % 75 % 0 % 1002,0 hPa 0,0 l/m 14,5 km/h (3 Bft) 0 min 7,0 km/h (2 Bft)
01.04.2010 04:08 14,1 C 5,1 C 0,0 UV-I 0,0 C 44 % 75 % 0 % 1002,0 hPa 0,0 l/m 13,7 km/h (3 Bft) 0 min 15,4 km/h (3 Bft)
01.04.2010 04:10 14,3 C 5,1 C 0,0 UV-I 0,0 C 44 % 76 % 0 % 1002,0 hPa 0,0 l/m 12,8 km/h (3 Bft) 0 min 8,4 km/h (2 Bft)
01.04.2010 04:13 14,1 C 4,9 C 0,0 UV-I 0,0 C 45 % 76 % 0 % 1002,3 hPa 0,0 l/m 15,3 km/h (3 Bft) 0 min 18,3 km/h (3 Bft)
01.04.2010 04:18 14,2 C 4,8 C 0,0 UV-I 0,0 C 45 % 77 % 0 % 1002,3 hPa 0,0 l/m 17,3 km/h (3 Bft) 0 min 14,2 km/h (3 Bft)
01.04.2010 04:19 14,2 C 4,8 C 0,0 UV-I 0,0 C 45 % 77 % 0 % 1002,3 hPa 0,0 l/m 17,3 km/h (3 Bft) 0 min 14,2 km/h (3 Bft)
01.04.2010 04:22 14,2 C 4,8 C 0,0 UV-I 0,0 C 45 % 77 % 0 % 1002,3 hPa 0,0 l/m 16,1 km/h (3 Bft) 0 min 14,7 km/h (3 Bft)
01.04.2010 04:24 14,2 C 4,7 C 0,0 UV-I 0,0 C 45 % 77 % 0 % 1002,3 hPa 0,0 l/m 15,7 km/h (3 Bft) 0 min 7,7 km/h (2 Bft)
01.04.2010 04:26 14,2 C 4,7 C 0,0 UV-I 0,0 C 45 % 77 % 0 % 1002,3 hPa 0,0 l/m 13,7 km/h (3 Bft) 0 min 8,7 km/h (2 Bft)
01.04.2010 04:28 14,2 C 4,6 C 0,0 UV-I 0,0 C 45 % 77 % 0 % 1002,3 hPa 0,0 l/m 12,4 km/h (3 Bft) 0 min 6,0 km/h (2 Bft)
01.04.2010 04:30 14,2 C 4,6 C 0,0 UV-I 0,0 C 45 % 77 % 0 % 1002,3 hPa 0,0 l/m 11,6 km/h (2 Bft) 0 min 5,5 km/h (1 Bft)
01.04.2010 04:32 14,2 C 4,7 C 0,0 UV-I 0,0 C 45 % 77 % 0 % 1003,0 hPa 0,0 l/m 12,0 km/h (2 Bft) 0 min 8,9 km/h (2 Bft)
01.04.2010 04:34 14,2 C 4,7 C 0,0 UV-I 0,0 C 45 % 77 % 0 % 1003,0 hPa 0,0 l/m 12,0 km/h (2 Bft) 0 min 17,6 km/h (3 Bft)
01.04.2010 04:36 14,2 C 4,5 C 0,0 UV-I 0,0 C 45 % 77 % 0 % 1003,0 hPa 0,0 l/m 12,0 km/h (2 Bft) 0 min 5,1 km/h (1 Bft)
01.04.2010 04:38 14,2 C 4,5 C 0,0 UV-I 0,0 C 45 % 77 % 0 % 1003,0 hPa 0,0 l/m 12,4 km/h (3 Bft) 0 min 13,0 km/h (3 Bft)
01.04.2010 04:40 14,2 C 4,5 C 0,0 UV-I 0,0 C 45 % 77 % 0 % 1003,0 hPa 0,0 l/m 13,3 km/h (3 Bft) 0 min 10,6 km/h (2 Bft)
01.04.2010 04:42 14,2 C 4,5 C 0,0 UV-I 0,0 C 45 % 77 % 0 % 1003,0 hPa 0,0 l/m 13,7 km/h (3 Bft) 0 min 6,5 km/h (2 Bft)
01.04.2010 04:44 14,2 C 4,5 C 0,0 UV-I 0,0 C 45 % 77 % 0 % 1003,0 hPa 0,0 l/m 13,7 km/h (3 Bft) 0 min 16,1 km/h (3 Bft)
01.04.2010 04:46 14,2 C 4,4 C 0,0 UV-I 0,0 C 45 % 77 % 0 % 1003,0 hPa 0,0 l/m 13,3 km/h (3 Bft) 0 min 6,7 km/h (2 Bft)
01.04.2010 04:48 14,1 C 4,4 C 0,0 UV-I 0,0 C 45 % 77 % 0 % 1003,0 hPa 0,0 l/m 13,3 km/h (3 Bft) 0 min 6,5 km/h (2 Bft)
01.04.2010 04:50 14,1 C 4,4 C 0,0 UV-I 0,0 C 45 % 77 % 0 % 1003,0 hPa 0,0 l/m 12,8 km/h (3 Bft) 0 min 19,5 km/h (3 Bft)
01.04.2010 04:52 14,1 C 4,5 C 0,0 UV-I 0,0 C 45 % 77 % 0 % 1002,8 hPa 0,0 l/m 12,4 km/h (3 Bft) 0 min 14,2 km/h (3 Bft)
01.04.2010 04:54 14,1 C 4,4 C 0,0 UV-I 0,0 C 45 % 77 % 0 % 1002,8 hPa 0,0 l/m 14,9 km/h (3 Bft) 0 min 14,7 km/h (3 Bft)
01.04.2010 04:56 14,1 C 4,4 C 0,0 UV-I 0,0 C 45 % 77 % 0 % 1002,8 hPa 0,0 l/m 14,9 km/h (3 Bft) 0 min 6,5 km/h (2 Bft)
01.04.2010 04:58 14,1 C 4,4 C 0,0 UV-I 0,0 C 45 % 77 % 0 % 1002,8 hPa 0,0 l/m 15,3 km/h (3 Bft) 0 min 15,2 km/h (3 Bft)
01.04.2010 05:00 14,1 C 4,4 C 0,0 UV-I 0,0 C 45 % 77 % 0 % 1002,8 hPa 0,0 l/m 15,7 km/h (3 Bft) 0 min 12,3 km/h (3 Bft)
01.04.2010 05:02 14,1 C 4,4 C 0,0 UV-I 0,0 C 45 % 77 % 0 % 1002,8 hPa 0,0 l/m 14,9 km/h (3 Bft) 0 min 6,7 km/h (2 Bft)
01.04.2010 05:04 14,1 C 4,3 C 0,0 UV-I 0,0 C 45 % 77 % 0 % 1002,8 hPa 0,0 l/m 13,3 km/h (3 Bft) 0 min 8,4 km/h (2 Bft)
01.04.2010 05:06 14,1 C 4,3 C 0,0 UV-I 0,0 C 45 % 77 % 0 % 1002,8 hPa 0,0 l/m 12,8 km/h (3 Bft) 0 min 14,4 km/h (3 Bft)
01.04.2010 05:08 14,1 C 4,3 C 0,0 UV-I 0,0 C 45 % 77 % 0 % 1002,8 hPa 0,0 l/m 13,3 km/h (3 Bft) 0 min 10,6 km/h (2 Bft)
01.04.2010 05:10 13,9 C 4,3 C 0,0 UV-I 0,0 C 45 % 77 % 0 % 1002,8 hPa 0,0 l/m 14,1 km/h (3 Bft) 0 min 17,3 km/h (3 Bft)
01.04.2010 05:12 14,1 C 4,4 C 0,0 UV-I 0,0 C 45 % 77 % 0 % 1002,9 hPa 0,0 l/m 14,9 km/h (3 Bft) 0 min 16,1 km/h (3 Bft)
01.04.2010 05:14 13,9 C 4,4 C 0,0 UV-I 0,0 C 45 % 77 % 0 % 1002,9 hPa 0,0 l/m 15,3 km/h (3 Bft) 0 min 8,9 km/h (2 Bft)
01.04.2010 05:16 13,9 C 4,4 C 0,0 UV-I 0,0 C 45 % 77 % 0 % 1002,9 hPa 0,0 l/m 16,1 km/h (3 Bft) 0 min 21,9 km/h (4 Bft)
01.04.2010 05:18 13,9 C 4,5 C 0,0 UV-I 0,0 C 45 % 77 % 0 % 1002,9 hPa 0,0 l/m 16,1 km/h (3 Bft) 0 min 8,9 km/h (2 Bft)
01.04.2010 05:20 13,9 C 4,4 C 0,0 UV-I 0,0 C 45 % 77 % 0 % 1002,9 hPa 0,0 l/m 15,7 km/h (3 Bft) 0 min 6,3 km/h (2 Bft)
01.04.2010 05:22 13,9 C 4,4 C 0,0 UV-I 0,0 C 45 % 77 % 0 % 1002,9 hPa 0,0 l/m 14,5 km/h (3 Bft) 0 min 4,3 km/h (1 Bft)
01.04.2010 05:24 13,9 C 4,4 C 0,0 UV-I 0,0 C 45 % 77 % 0 % 1002,9 hPa 0,0 l/m 14,1 km/h (3 Bft) 0 min 9,9 km/h (2 Bft)
01.04.2010 05:26 13,9 C 4,4 C 0,0 UV-I 0,0 C 45 % 77 % 0 % 1002,9 hPa 0,0 l/m 14,1 km/h (3 Bft) 0 min 16,4 km/h (3 Bft)
01.04.2010 05:28 13,9 C 4,4 C 0,0 UV-I 0,0 C 45 % 77 % 0 % 1002,9 hPa 0,0 l/m 14,1 km/h (3 Bft) 0 min 14,0 km/h (3 Bft)
01.04.2010 05:30 13,9 C 4,4 C 0,0 UV-I 0,0 C 45 % 77 % 0 % 1002,9 hPa 0,0 l/m 13,3 km/h (3 Bft) 0 min 13,0 km/h (3 Bft)
01.04.2010 05:32 13,9 C 4,4 C 0,0 UV-I 0,0 C 45 % 77 % 0 % 1003,2 hPa 0,0 l/m 15,3 km/h (3 Bft) 0 min 19,0 km/h (3 Bft)
01.04.2010 05:34 14,0 C 4,4 C 0,0 UV-I 0,0 C 45 % 77 % 0 % 1003,2 hPa 0,0 l/m 16,9 km/h (3 Bft) 0 min 10,3 km/h (2 Bft)
01.04.2010 05:36 14,0 C 4,4 C 0,0 UV-I 0,0 C 45 % 77 % 0 % 1003,2 hPa 0,0 l/m 16,9 km/h (3 Bft) 0 min 13,2 km/h (3 Bft)
01.04.2010 05:38 14,0 C 4,4 C 0,0 UV-I 0,0 C 44 % 77 % 0 % 1003,2 hPa 0,0 l/m 14,9 km/h (3 Bft) 0 min 13,2 km/h (3 Bft)
01.04.2010 05:40 14,0 C 4,4 C 0,0 UV-I 0,0 C 44 % 77 % 0 % 1003,2 hPa 0,0 l/m 15,7 km/h (3 Bft) 0 min 11,5 km/h (2 Bft)
01.04.2010 05:42 14,0 C 4,4 C 0,0 UV-I 0,0 C 44 % 76 % 0 % 1003,2 hPa 0,0 l/m 16,1 km/h (3 Bft) 0 min 17,8 km/h (3 Bft)
01.04.2010 05:44 14,0 C 4,4 C 0,0 UV-I 0,0 C 44 % 77 % 0 % 1003,2 hPa 0,0 l/m 14,1 km/h (3 Bft) 0 min 22,1 km/h (4 Bft)
01.04.2010 05:46 14,0 C 4,4 C 0,0 UV-I 0,0 C 44 % 77 % 0 % 1003,2 hPa 0,0 l/m 14,5 km/h (3 Bft) 0 min 9,4 km/h (2 Bft)
01.04.2010 05:48 14,0 C 4,4 C 0,0 UV-I 0,0 C 45 % 76 % 0 % 1003,2 hPa 0,0 l/m 15,7 km/h (3 Bft) 0 min 18,3 km/h (3 Bft)
01.04.2010 05:50 14,0 C 4,4 C 0,0 UV-I 0,0 C 44 % 76 % 0 % 1003,2 hPa 0,0 l/m 16,1 km/h (3 Bft) 0 min 12,5 km/h (3 Bft)
01.04.2010 05:52 14,0 C 4,3 C 0,0 UV-I 0,0 C 45 % 76 % 0 % 1003,4 hPa 0,0 l/m 14,1 km/h (3 Bft) 0 min 7,5 km/h (2 Bft)
01.04.2010 05:54 14,0 C 4,3 C 0,0 UV-I 0,0 C 45 % 76 % 0 % 1003,4 hPa 0,0 l/m 14,5 km/h (3 Bft) 0 min 25,0 km/h (4 Bft)
01.04.2010 05:56 14,0 C 4,3 C 0,0 UV-I 0,0 C 44 % 76 % 0 % 1003,4 hPa 0,0 l/m 14,5 km/h (3 Bft) 0 min 13,0 km/h (3 Bft)
01.04.2010 05:58 14,0 C 4,3 C 0,0 UV-I 0,0 C 44 % 76 % 0 % 1003,4 hPa 0,0 l/m 14,9 km/h (3 Bft) 0 min 11,5 km/h (2 Bft)
01.04.2010 06:00 14,0 C 4,3 C 0,0 UV-I 0,0 C 44 % 76 % 0 % 1003,4 hPa 0,0 l/m 13,7 km/h (3 Bft) 0 min 9,9 km/h (2 Bft)
01.04.2010 06:02 14,0 C 4,3 C 0,0 UV-I 0,0 C 44 % 76 % 0 % 1003,4 hPa 0,0 l/m 13,7 km/h (3 Bft) 0 min 12,0 km/h (2 Bft)
01.04.2010 06:04 14,0 C 4,3 C 0,0 UV-I 0,0 C 45 % 76 % 0 % 1003,4 hPa 0,0 l/m 13,7 km/h (3 Bft) 0 min 12,0 km/h (2 Bft)
01.04.2010 06:06 14,0 C 4,2 C 0,0 UV-I 0,0 C 45 % 76 % 0 % 1003,4 hPa 0,0 l/m 12,8 km/h (3 Bft) 0 min 6,5 km/h (2 Bft)
01.04.2010 06:08 14,0 C 4,2 C 0,0 UV-I 0,0 C 45 % 76 % 0 % 1003,4 hPa 0,0 l/m 11,6 km/h (2 Bft) 0 min 10,3 km/h (2 Bft)
01.04.2010 06:10 13,8 C 4,1 C 0,0 UV-I 0,0 C 45 % 76 % 0 % 1003,4 hPa 0,0 l/m 11,2 km/h (2 Bft) 0 min 11,8 km/h (2 Bft)
01.04.2010 06:12 13,8 C 4,1 C 0,0 UV-I 0,0 C 45 % 76 % 0 % 1003,5 hPa 0,0 l/m 11,6 km/h (2 Bft) 0 min 4,6 km/h (1 Bft)
01.04.2010 06:14 13,8 C 4,1 C 0,0 UV-I 0,0 C 45 % 76 % 0 % 1003,5 hPa 0,0 l/m 12,0 km/h (2 Bft) 0 min 9,1 km/h (2 Bft)
01.04.2010 06:16 13,8 C 4,0 C 0,0 UV-I 0,0 C 45 % 76 % 0 % 1003,5 hPa 0,0 l/m 12,0 km/h (2 Bft) 0 min 9,1 km/h (2 Bft)
01.04.2010 06:18 13,8 C 4,0 C 0,0 UV-I 0,0 C 45 % 77 % 0 % 1003,5 hPa 0,0 l/m 12,4 km/h (3 Bft) 0 min 5,8 km/h (2 Bft)
01.04.2010 06:20 13,8 C 4,0 C 0,0 UV-I 0,0 C 45 % 77 % 0 % 1003,5 hPa 0,0 l/m 13,7 km/h (3 Bft) 0 min 8,9 km/h (2 Bft)
01.04.2010 06:22 13,9 C 4,0 C 0,0 UV-I 0,0 C 45 % 77 % 0 % 1003,5 hPa 0,0 l/m 12,8 km/h (3 Bft) 0 min 12,5 km/h (3 Bft)
01.04.2010 06:24 13,9 C 4,0 C 0,0 UV-I 0,0 C 45 % 77 % 0 % 1003,5 hPa 0,0 l/m 13,3 km/h (3 Bft) 0 min 11,8 km/h (2 Bft)
01.04.2010 06:26 13,8 C 4,0 C 0,0 UV-I 0,0 C 45 % 77 % 0 % 1003,5 hPa 0,0 l/m 12,4 km/h (3 Bft) 0 min 8,2 km/h (2 Bft)
01.04.2010 06:28 13,9 C 4,0 C 0,0 UV-I 0,0 C 45 % 77 % 0 % 1003,5 hPa 0,0 l/m 11,6 km/h (2 Bft) 0 min 6,7 km/h (2 Bft)
01.04.2010 06:30 13,9 C 4,0 C 0,0 UV-I 0,0 C 45 % 77 % 0 % 1003,5 hPa 0,0 l/m 11,2 km/h (2 Bft) 0 min 17,8 km/h (3 Bft)
01.04.2010 06:32 13,9 C 3,9 C 0,0 UV-I 0,0 C 45 % 77 % 0 % 1003,8 hPa 0,0 l/m 10,4 km/h (2 Bft) 0 min 14,4 km/h (3 Bft)
01.04.2010 06:34 13,9 C 3,9 C 0,0 UV-I 0,0 C 45 % 77 % 0 % 1003,8 hPa 0,0 l/m 10,0 km/h (2 Bft) 0 min 14,2 km/h (3 Bft)
01.04.2010 06:36 13,9 C 3,9 C 0,0 UV-I 0,0 C 45 % 77 % 0 % 1003,8 hPa 0,0 l/m 9,6 km/h (2 Bft) 0 min 7,9 km/h (2 Bft)
01.04.2010 06:38 13,9 C 3,9 C 0,0 UV-I 0,0 C 44 % 77 % 0 % 1003,8 hPa 0,0 l/m 8,8 km/h (2 Bft) 0 min 5,8 km/h (2 Bft)
01.04.2010 06:40 13,9 C 3,9 C 0,0 UV-I 0,0 C 45 % 77 % 0 % 1003,8 hPa 0,0 l/m 9,2 km/h (2 Bft) 0 min 12,0 km/h (2 Bft)
01.04.2010 06:42 13,9 C 3,9 C 0,0 UV-I 0,0 C 45 % 78 % 0 % 1003,8 hPa 0,0 l/m 9,6 km/h (2 Bft) 0 min 11,8 km/h (2 Bft)
01.04.2010 06:44 13,8 C 3,9 C 0,0 UV-I 0,0 C 45 % 78 % 0 % 1003,8 hPa 0,0 l/m 10,8 km/h (2 Bft) 0 min 9,6 km/h (2 Bft)
01.04.2010 06:46 13,8 C 3,9 C 0,0 UV-I 0,0 C 45 % 78 % 0 % 1003,8 hPa 0,0 l/m 11,2 km/h (2 Bft) 0 min 5,8 km/h (2 Bft)
01.04.2010 06:48 13,9 C 3,9 C 0,0 UV-I 0,0 C 45 % 78 % 0 % 1003,8 hPa 0,0 l/m 12,0 km/h (2 Bft) 0 min 13,0 km/h (3 Bft)
01.04.2010 06:50 13,8 C 3,9 C 0,0 UV-I 0,0 C 45 % 78 % 0 % 1003,8 hPa 0,0 l/m 12,0 km/h (2 Bft) 0 min 7,5 km/h (2 Bft)
01.04.2010 06:52 13,8 C 3,9 C 0,0 UV-I 0,0 C 45 % 78 % 0 % 1003,9 hPa 0,0 l/m 12,0 km/h (2 Bft) 0 min 10,6 km/h (2 Bft)
01.04.2010 06:54 13,8 C 3,9 C 0,0 UV-I 0,0 C 45 % 78 % 0 % 1003,9 hPa 0,0 l/m 11,6 km/h (2 Bft) 0 min 3,4 km/h (1 Bft)
01.04.2010 06:56 13,8 C 3,9 C 0,0 UV-I 0,0 C 45 % 78 % 0 % 1003,9 hPa 0,0 l/m 10,8 km/h (2 Bft) 0 min 6,7 km/h (2 Bft)
01.04.2010 06:58 13,8 C 3,9 C 0,0 UV-I 0,0 C 45 % 78 % 0 % 1003,9 hPa 0,0 l/m 10,4 km/h (2 Bft) 0 min 10,6 km/h (2 Bft)
01.04.2010 07:00 13,8 C 3,9 C 0,0 UV-I 0,0 C 45 % 78 % 0 % 1003,9 hPa 0,0 l/m 10,0 km/h (2 Bft) 0 min 7,7 km/h (2 Bft)
01.04.2010 07:02 13,8 C 3,9 C 0,0 UV-I 0,0 C 45 % 78 % 0 % 1003,9 hPa 0,0 l/m 11,2 km/h (2 Bft) 0 min 21,2 km/h (4 Bft)
01.04.2010 07:04 13,8 C 3,9 C 0,0 UV-I 0,0 C 45 % 78 % 0 % 1003,9 hPa 0,0 l/m 10,4 km/h (2 Bft) 0 min 7,0 km/h (2 Bft)
01.04.2010 07:06 13,8 C 3,9 C 0,0 UV-I 0,0 C 45 % 78 % 0 % 1003,9 hPa 0,0 l/m 10,8 km/h (2 Bft) 0 min 9,9 km/h (2 Bft)
01.04.2010 07:08 13,8 C 3,9 C 0,0 UV-I 0,0 C 45 % 78 % 0 % 1003,9 hPa 0,0 l/m 11,2 km/h (2 Bft) 0 min 9,6 km/h (2 Bft)
01.04.2010 07:10 13,8 C 3,7 C 0,0 UV-I 0,0 C 45 % 78 % 0 % 1003,9 hPa 0,0 l/m 11,2 km/h (2 Bft) 0 min 7,2 km/h (2 Bft)
01.04.2010 07:14 13,8 C 3,8 C 0,0 UV-I 0,0 C 45 % 78 % 0 % 1003,9 hPa 0,0 l/m 10,4 km/h (2 Bft) 0 min 10,6 km/h (2 Bft)
01.04.2010 07:16 13,8 C 3,9 C 0,0 UV-I 0,0 C 45 % 78 % 0 % 1003,9 hPa 0,0 l/m 11,2 km/h (2 Bft) 0 min 12,5 km/h (3 Bft)
01.04.2010 07:18 13,8 C 3,9 C 0,0 UV-I 0,0 C 45 % 78 % 0 % 1003,9 hPa 0,0 l/m 10,8 km/h (2 Bft) 0 min 6,3 km/h (2 Bft)
01.04.2010 07:20 13,8 C 3,7 C 0,0 UV-I 0,0 C 45 % 78 % 0 % 1003,9 hPa 0,0 l/m 10,8 km/h (2 Bft) 0 min 9,6 km/h (2 Bft)
01.04.2010 07:22 13,8 C 3,7 C 0,0 UV-I 0,0 C 45 % 78 % 0 % 1003,9 hPa 0,0 l/m 10,8 km/h (2 Bft) 0 min 4,3 km/h (1 Bft)
01.04.2010 07:24 13,8 C 3,8 C 0,0 UV-I 0,0 C 45 % 78 % 0 % 1003,9 hPa 0,0 l/m 11,2 km/h (2 Bft) 0 min 21,7 km/h (4 Bft)
01.04.2010 07:26 13,8 C 3,7 C 0,0 UV-I 0,0 C 45 % 78 % 0 % 1003,9 hPa 0,0 l/m 12,4 km/h (3 Bft) 0 min 8,7 km/h (2 Bft)
01.04.2010 07:28 13,8 C 3,7 C 0,0 UV-I 0,0 C 45 % 78 % 0 % 1003,9 hPa 0,0 l/m 12,4 km/h (3 Bft) 0 min 4,8 km/h (1 Bft)
01.04.2010 07:30 13,8 C 3,7 C 0,0 UV-I 0,0 C 45 % 78 % 0 % 1003,9 hPa 0,0 l/m 12,4 km/h (3 Bft) 0 min 10,1 km/h (2 Bft)
01.04.2010 07:32 13,8 C 3,7 C 0,0 UV-I 0,0 C 45 % 78 % 0 % 1004,1 hPa 0,0 l/m 12,4 km/h (3 Bft) 0 min 16,1 km/h (3 Bft)
01.04.2010 07:34 13,8 C 3,7 C 0,0 UV-I 0,0 C 45 % 78 % 0 % 1004,1 hPa 0,0 l/m 12,0 km/h (2 Bft) 0 min 6,3 km/h (2 Bft)
01.04.2010 07:36 13,8 C 3,7 C 0,0 UV-I 0,0 C 45 % 78 % 0 % 1004,1 hPa 0,0 l/m 11,2 km/h (2 Bft) 0 min 10,1 km/h (2 Bft)
01.04.2010 07:38 13,8 C 3,7 C 0,0 UV-I 0,0 C 45 % 78 % 0 % 1004,1 hPa 0,0 l/m 11,6 km/h (2 Bft) 0 min 16,4 km/h (3 Bft)
01.04.2010 07:40 13,8 C 3,8 C 0,0 UV-I 0,0 C 45 % 78 % 0 % 1004,1 hPa 0,0 l/m 11,2 km/h (2 Bft) 0 min 7,7 km/h (2 Bft)
01.04.2010 07:42 13,8 C 3,7 C 0,0 UV-I 0,0 C 45 % 78 % 0 % 1004,1 hPa 0,0 l/m 12,4 km/h (3 Bft) 0 min 13,7 km/h (3 Bft)
01.04.2010 07:44 13,8 C 3,7 C 0,0 UV-I 0,0 C 45 % 78 % 0 % 1004,1 hPa 0,0 l/m 12,4 km/h (3 Bft) 0 min 7,0 km/h (2 Bft)
01.04.2010 07:46 13,8 C 3,7 C 0,0 UV-I 0,0 C 45 % 79 % 0 % 1004,1 hPa 0,0 l/m 12,4 km/h (3 Bft) 0 min 13,0 km/h (3 Bft)
01.04.2010 07:48 13,8 C 3,6 C 0,0 UV-I 0,0 C 45 % 79 % 0 % 1004,1 hPa 0,0 l/m 12,4 km/h (3 Bft) 0 min 8,7 km/h (2 Bft)
01.04.2010 07:50 13,8 C 3,7 C 0,0 UV-I 0,0 C 45 % 79 % 0 % 1004,1 hPa 0,0 l/m 11,6 km/h (2 Bft) 0 min 9,1 km/h (2 Bft)
01.04.2010 07:52 13,8 C 3,7 C 0,0 UV-I 0,0 C 45 % 79 % 0 % 1004,6 hPa 0,0 l/m 12,4 km/h (3 Bft) 0 min 11,1 km/h (2 Bft)
01.04.2010 07:54 13,8 C 3,7 C 0,0 UV-I 0,0 C 45 % 79 % 0 % 1004,6 hPa 0,0 l/m 13,3 km/h (3 Bft) 0 min 16,8 km/h (3 Bft)
01.04.2010 07:56 13,8 C 3,7 C 0,0 UV-I 0,0 C 45 % 79 % 0 % 1004,6 hPa 0,0 l/m 12,8 km/h (3 Bft) 0 min 5,1 km/h (1 Bft)
01.04.2010 07:58 13,8 C 3,9 C 0,0 UV-I 0,0 C 45 % 79 % 0 % 1004,6 hPa 0,0 l/m 12,0 km/h (2 Bft) 0 min 6,3 km/h (2 Bft)
01.04.2010 08:00 13,8 C 3,9 C 0,0 UV-I 0,0 C 45 % 79 % 0 % 1004,6 hPa 0,0 l/m 12,4 km/h (3 Bft) 0 min 7,2 km/h (2 Bft)
01.04.2010 08:02 13,8 C 3,8 C 0,0 UV-I 0,0 C 45 % 79 % 0 % 1004,6 hPa 0,0 l/m 12,4 km/h (3 Bft) 0 min 10,1 km/h (2 Bft)
01.04.2010 08:04 13,8 C 3,8 C 0,0 UV-I 0,0 C 45 % 79 % 0 % 1004,6 hPa 0,0 l/m 11,6 km/h (2 Bft) 0 min 14,2 km/h (3 Bft)
01.04.2010 08:06 13,8 C 3,9 C 0,0 UV-I 0,0 C 45 % 79 % 0 % 1004,6 hPa 0,0 l/m 12,0 km/h (2 Bft) 0 min 23,1 km/h (4 Bft)
01.04.2010 08:08 13,8 C 3,9 C 0,0 UV-I 0,0 C 45 % 79 % 0 % 1004,6 hPa 0,0 l/m 12,8 km/h (3 Bft) 0 min 12,0 km/h (2 Bft)
01.04.2010 08:10 13,6 C 3,8 C 0,0 UV-I 0,0 C 45 % 79 % 0 % 1004,6 hPa 0,0 l/m 14,9 km/h (3 Bft) 0 min 12,8 km/h (3 Bft)
01.04.2010 08:12 13,8 C 3,9 C 0,0 UV-I 0,0 C 45 % 79 % 0 % 1004,4 hPa 0,0 l/m 14,5 km/h (3 Bft) 0 min 11,3 km/h (2 Bft)
01.04.2010 08:14 13,8 C 3,8 C 0,0 UV-I 0,0 C 45 % 79 % 0 % 1004,4 hPa 0,0 l/m 14,1 km/h (3 Bft) 0 min 9,6 km/h (2 Bft)
01.04.2010 08:16 13,8 C 3,8 C 0,0 UV-I 0,0 C 45 % 78 % 0 % 1004,4 hPa 0,0 l/m 14,9 km/h (3 Bft) 0 min 6,3 km/h (2 Bft)
01.04.2010 08:18 13,8 C 3,9 C 0,0 UV-I 0,0 C 45 % 78 % 0 % 1004,4 hPa 0,0 l/m 15,3 km/h (3 Bft) 0 min 13,0 km/h (3 Bft)
01.04.2010 08:22 13,6 C 3,9 C 0,0 UV-I 0,0 C 45 % 79 % 0 % 1004,4 hPa 0,0 l/m 14,5 km/h (3 Bft) 0 min 14,2 km/h (3 Bft)
01.04.2010 08:24 13,6 C 3,9 C 0,0 UV-I 0,0 C 45 % 78 % 0 % 1004,4 hPa 0,0 l/m 15,3 km/h (3 Bft) 0 min 11,3 km/h (2 Bft)
01.04.2010 08:26 13,6 C 3,9 C 0,1 UV-I 0,0 C 45 % 78 % 0 % 1004,4 hPa 0,0 l/m 16,5 km/h (3 Bft) 0 min 33,2 km/h (5 Bft)
01.04.2010 08:28 13,6 C 3,9 C 0,1 UV-I 0,0 C 45 % 78 % 0 % 1004,4 hPa 0,0 l/m 15,7 km/h (3 Bft) 0 min 7,2 km/h (2 Bft)
01.04.2010 08:30 13,6 C 3,9 C 0,2 UV-I 0,0 C 45 % 78 % 0 % 1004,4 hPa 0,0 l/m 15,7 km/h (3 Bft) 0 min 11,3 km/h (2 Bft)
01.04.2010 08:32 13,6 C 4,0 C 0,2 UV-I 0,0 C 45 % 78 % 0 % 1004,9 hPa 0,0 l/m 15,7 km/h (3 Bft) 0 min 14,9 km/h (3 Bft)
01.04.2010 08:34 13,6 C 4,0 C 0,2 UV-I 0,0 C 45 % 78 % 0 % 1004,9 hPa 0,0 l/m 14,5 km/h (3 Bft) 0 min 14,0 km/h (3 Bft)
01.04.2010 08:36 13,6 C 4,1 C 0,2 UV-I 0,0 C 45 % 78 % 0 % 1004,9 hPa 0,0 l/m 14,5 km/h (3 Bft) 0 min 8,9 km/h (2 Bft)
01.04.2010 08:38 13,6 C 4,0 C 0,2 UV-I 0,0 C 45 % 78 % 0 % 1004,9 hPa 0,0 l/m 12,4 km/h (3 Bft) 0 min 4,6 km/h (1 Bft)
01.04.2010 08:40 13,6 C 4,0 C 0,2 UV-I 0,0 C 45 % 78 % 0 % 1004,9 hPa 0,0 l/m 12,8 km/h (3 Bft) 0 min 7,2 km/h (2 Bft)
01.04.2010 08:42 13,6 C 4,0 C 0,2 UV-I 0,0 C 45 % 78 % 0 % 1004,9 hPa 0,0 l/m 12,8 km/h (3 Bft) 0 min 15,4 km/h (3 Bft)
01.04.2010 08:44 13,6 C 4,1 C 0,2 UV-I 0,0 C 45 % 78 % 0 % 1004,9 hPa 0,0 l/m 14,1 km/h (3 Bft) 0 min 14,2 km/h (3 Bft)
01.04.2010 08:46 13,6 C 4,1 C 0,3 UV-I 0,0 C 45 % 78 % 0 % 1004,9 hPa 0,0 l/m 13,7 km/h (3 Bft) 0 min 7,2 km/h (2 Bft)
01.04.2010 08:48 13,6 C 4,2 C 0,3 UV-I 0,0 C 45 % 78 % 0 % 1004,9 hPa 0,0 l/m 13,7 km/h (3 Bft) 0 min 11,8 km/h (2 Bft)
01.04.2010 08:50 13,6 C 4,1 C 0,1 UV-I 0,0 C 45 % 78 % 0 % 1004,9 hPa 0,0 l/m 13,7 km/h (3 Bft) 0 min 6,7 km/h (2 Bft)
01.04.2010 08:52 13,6 C 4,3 C 0,1 UV-I 0,0 C 45 % 78 % 0 % 1005,1 hPa 0,0 l/m 14,5 km/h (3 Bft) 0 min 11,8 km/h (2 Bft)
01.04.2010 08:56 13,6 C 4,2 C 0,0 UV-I 0,0 C 45 % 78 % 0 % 1005,1 hPa 0,0 l/m 12,8 km/h (3 Bft) 0 min 9,1 km/h (2 Bft)
01.04.2010 08:58 13,6 C 4,2 C 0,0 UV-I 0,0 C 45 % 78 % 0 % 1005,1 hPa 0,0 l/m 13,3 km/h (3 Bft) 0 min 10,6 km/h (2 Bft)
01.04.2010 09:00 13,6 C 4,3 C 0,0 UV-I 0,0 C 45 % 78 % 0 % 1005,1 hPa 0,0 l/m 13,7 km/h (3 Bft) 0 min 10,6 km/h (2 Bft)
01.04.2010 09:02 13,6 C 4,3 C 0,0 UV-I 0,0 C 45 % 78 % 0 % 1005,1 hPa 0,0 l/m 14,5 km/h (3 Bft) 0 min 14,4 km/h (3 Bft)
01.04.2010 09:04 13,6 C 4,3 C 0,0 UV-I 0,0 C 45 % 78 % 0 % 1005,1 hPa 0,0 l/m 14,9 km/h (3 Bft) 0 min 16,4 km/h (3 Bft)
01.04.2010 09:06 13,6 C 4,4 C 0,3 UV-I 0,0 C 45 % 78 % 0 % 1005,1 hPa 0,0 l/m 14,9 km/h (3 Bft) 0 min 10,6 km/h (2 Bft)
01.04.2010 09:08 13,6 C 4,3 C 0,3 UV-I 0,0 C 45 % 78 % 0 % 1005,1 hPa 0,0 l/m 15,3 km/h (3 Bft) 0 min 10,6 km/h (2 Bft)
01.04.2010 09:10 13,6 C 4,4 C 0,7 UV-I 0,0 C 45 % 78 % 0 % 1005,1 hPa 0,0 l/m 14,5 km/h (3 Bft) 0 min 5,3 km/h (1 Bft)
01.04.2010 09:12 13,6 C 4,4 C 0,7 UV-I 0,0 C 45 % 79 % 0 % 1005,3 hPa 0,0 l/m 14,1 km/h (3 Bft) 0 min 14,0 km/h (3 Bft)
01.04.2010 09:14 13,6 C 4,4 C 0,7 UV-I 0,0 C 45 % 78 % 0 % 1005,3 hPa 0,0 l/m 14,5 km/h (3 Bft) 0 min 13,7 km/h (3 Bft)
01.04.2010 09:16 13,6 C 4,4 C 1,0 UV-I 0,0 C 45 % 78 % 0 % 1005,3 hPa 0,0 l/m 13,7 km/h (3 Bft) 0 min 9,6 km/h (2 Bft)
01.04.2010 09:18 13,6 C 4,4 C 1,0 UV-I 0,0 C 45 % 78 % 0 % 1005,3 hPa 0,0 l/m 13,3 km/h (3 Bft) 0 min 6,0 km/h (2 Bft)
01.04.2010 09:20 13,6 C 4,5 C 0,9 UV-I 0,0 C 45 % 78 % 0 % 1005,3 hPa 0,0 l/m 13,7 km/h (3 Bft) 0 min 9,1 km/h (2 Bft)
01.04.2010 09:22 13,6 C 4,6 C 0,9 UV-I 0,0 C 45 % 78 % 0 % 1005,3 hPa 0,0 l/m 14,5 km/h (3 Bft) 0 min 27,2 km/h (4 Bft)
01.04.2010 09:24 13,6 C 4,7 C 0,9 UV-I 0,0 C 45 % 78 % 0 % 1005,3 hPa 0,0 l/m 14,9 km/h (3 Bft) 0 min 9,9 km/h (2 Bft)
01.04.2010 09:26 13,6 C 4,6 C 1,0 UV-I 0,0 C 45 % 78 % 0 % 1005,3 hPa 0,0 l/m 14,9 km/h (3 Bft) 0 min 9,6 km/h (2 Bft)
01.04.2010 09:28 13,6 C 4,7 C 1,0 UV-I 0,0 C 45 % 77 % 0 % 1005,3 hPa 0,0 l/m 16,1 km/h (3 Bft) 0 min 14,9 km/h (3 Bft)
01.04.2010 09:30 13,6 C 4,7 C 1,0 UV-I 0,0 C 45 % 77 % 0 % 1005,3 hPa 0,0 l/m 16,5 km/h (3 Bft) 0 min 15,4 km/h (3 Bft)
01.04.2010 09:32 13,6 C 4,7 C 1,0 UV-I 0,0 C 45 % 77 % 0 % 1005,8 hPa 0,0 l/m 15,7 km/h (3 Bft) 0 min 4,8 km/h (1 Bft)
01.04.2010 09:36 13,6 C 4,9 C 1,2 UV-I 0,0 C 45 % 77 % 0 % 1005,8 hPa 0,0 l/m 14,9 km/h (3 Bft) 0 min 11,3 km/h (2 Bft)
01.04.2010 09:38 13,6 C 4,8 C 1,2 UV-I 0,0 C 45 % 77 % 0 % 1005,8 hPa 0,0 l/m 14,5 km/h (3 Bft) 0 min 16,4 km/h (3 Bft)
01.04.2010 09:40 13,6 C 4,9 C 1,0 UV-I 0,0 C 45 % 77 % 0 % 1005,8 hPa 0,0 l/m 15,3 km/h (3 Bft) 0 min 21,9 km/h (4 Bft)
01.04.2010 09:42 13,8 C 5,1 C 1,0 UV-I 0,0 C 45 % 77 % 0 % 1005,8 hPa 0,0 l/m 15,7 km/h (3 Bft) 0 min 13,0 km/h (3 Bft)
01.04.2010 09:44 13,6 C 5,1 C 1,0 UV-I 0,0 C 45 % 77 % 0 % 1005,8 hPa 0,0 l/m 16,5 km/h (3 Bft) 0 min 17,1 km/h (3 Bft)
01.04.2010 09:46 13,8 C 5,1 C 0,9 UV-I 0,0 C 45 % 76 % 0 % 1005,8 hPa 0,0 l/m 16,5 km/h (3 Bft) 0 min 16,4 km/h (3 Bft)
01.04.2010 09:50 13,8 C 5,0 C 0,8 UV-I 0,0 C 45 % 77 % 0 % 1005,8 hPa 0,0 l/m 17,3 km/h (3 Bft) 0 min 19,2 km/h (3 Bft)
01.04.2010 09:52 13,8 C 5,0 C 0,8 UV-I 0,0 C 45 % 76 % 0 % 1006,0 hPa 0,0 l/m 16,9 km/h (3 Bft) 0 min 17,8 km/h (3 Bft)
01.04.2010 09:54 13,8 C 5,0 C 0,8 UV-I 0,0 C 45 % 76 % 0 % 1006,0 hPa 0,0 l/m 16,9 km/h (3 Bft) 0 min 8,9 km/h (2 Bft)
01.04.2010 09:56 13,8 C 5,1 C 0,5 UV-I 0,0 C 45 % 76 % 0 % 1006,0 hPa 0,0 l/m 16,5 km/h (3 Bft) 0 min 14,9 km/h (3 Bft)
01.04.2010 09:58 13,8 C 5,1 C 0,5 UV-I 0,0 C 45 % 77 % 0 % 1006,0 hPa 0,0 l/m 15,3 km/h (3 Bft) 0 min 15,6 km/h (3 Bft)
01.04.2010 10:00 13,8 C 5,2 C 0,4 UV-I 0,0 C 45 % 76 % 0 % 1006,0 hPa 0,0 l/m 16,1 km/h (3 Bft) 0 min 21,2 km/h (4 Bft)
01.04.2010 10:06 13,8 C 5,2 C 0,6 UV-I 0,0 C 45 % 76 % 0 % 1006,0 hPa 0,0 l/m 15,3 km/h (3 Bft) 0 min 8,2 km/h (2 Bft)
01.04.2010 10:08 13,8 C 5,3 C 0,6 UV-I 0,0 C 45 % 76 % 0 % 1006,0 hPa 0,0 l/m 16,5 km/h (3 Bft) 0 min 18,5 km/h (3 Bft)
01.04.2010 10:12 13,8 C 5,2 C 0,7 UV-I 0,0 C 45 % 75 % 0 % 1006,8 hPa 0,0 l/m 16,1 km/h (3 Bft) 0 min 14,9 km/h (3 Bft)
01.04.2010 10:14 13,8 C 5,3 C 0,7 UV-I 0,0 C 45 % 76 % 0 % 1006,8 hPa 0,0 l/m 17,3 km/h (3 Bft) 0 min 17,3 km/h (3 Bft)
01.04.2010 10:16 13,8 C 5,2 C 0,5 UV-I 0,0 C 45 % 75 % 0 % 1006,8 hPa 0,0 l/m 16,9 km/h (3 Bft) 0 min 7,9 km/h (2 Bft)
01.04.2010 10:18 13,8 C 5,3 C 0,5 UV-I 0,0 C 45 % 76 % 0 % 1006,8 hPa 0,0 l/m 16,1 km/h (3 Bft) 0 min 6,0 km/h (2 Bft)
01.04.2010 10:20 13,8 C 5,3 C 0,3 UV-I 0,0 C 45 % 76 % 0 % 1006,8 hPa 0,0 l/m 16,1 km/h (3 Bft) 0 min 10,1 km/h (2 Bft)
01.04.2010 10:22 13,6 C 5,3 C 0,3 UV-I 0,0 C 45 % 76 % 0 % 1006,8 hPa 0,0 l/m 14,5 km/h (3 Bft) 0 min 6,7 km/h (2 Bft)
01.04.2010 10:24 13,8 C 5,3 C 0,3 UV-I 0,0 C 45 % 76 % 0 % 1006,8 hPa 0,0 l/m 12,4 km/h (3 Bft) 0 min 9,1 km/h (2 Bft)
01.04.2010 10:28 13,8 C 5,4 C 1,1 UV-I 0,4 C 45 % 76 % 11 % 1006,8 hPa 0,0 l/m 11,2 km/h (2 Bft) 0 min 9,6 km/h (2 Bft)
01.04.2010 10:32 13,8 C 5,6 C 2,7 UV-I 1,8 C 45 % 75 % 51 % 1006,7 hPa 0,0 l/m 11,6 km/h (2 Bft) 0 min 11,1 km/h (2 Bft)
01.04.2010 10:34 13,8 C 5,6 C 2,7 UV-I 2,1 C 45 % 75 % 60 % 1006,7 hPa 0,0 l/m 12,4 km/h (3 Bft) 0 min 9,1 km/h (2 Bft)
01.04.2010 10:36 13,8 C 5,6 C 2,6 UV-I 2,3 C 45 % 75 % 66 % 1006,7 hPa 0,0 l/m 13,7 km/h (3 Bft) 0 min 26,5 km/h (4 Bft)
01.04.2010 10:38 13,8 C 5,7 C 2,6 UV-I 2,2 C 45 % 74 % 63 % 1006,7 hPa 0,0 l/m 14,9 km/h (3 Bft) 0 min 14,4 km/h (3 Bft)
01.04.2010 10:40 13,8 C 5,8 C 1,6 UV-I 1,9 C 45 % 74 % 54 % 1006,7 hPa 0,0 l/m 16,1 km/h (3 Bft) 0 min 21,2 km/h (4 Bft)
01.04.2010 10:42 13,8 C 5,9 C 1,6 UV-I 1,4 C 45 % 73 % 40 % 1006,7 hPa 0,0 l/m 17,3 km/h (3 Bft) 0 min 10,6 km/h (2 Bft)
01.04.2010 10:44 13,8 C 5,9 C 1,6 UV-I 0,9 C 45 % 73 % 26 % 1006,7 hPa 0,0 l/m 18,1 km/h (3 Bft) 0 min 9,4 km/h (2 Bft)
01.04.2010 10:46 13,8 C 5,9 C 0,8 UV-I 1,0 C 45 % 73 % 29 % 1006,7 hPa 0,0 l/m 19,7 km/h (3 Bft) 0 min 11,1 km/h (2 Bft)
01.04.2010 10:48 13,8 C 5,9 C 0,8 UV-I 0,0 C 45 % 73 % 0 % 1006,7 hPa 0,0 l/m 19,3 km/h (3 Bft) 0 min 19,2 km/h (3 Bft)
01.04.2010 10:50 13,9 C 5,9 C 0,2 UV-I 0,0 C 45 % 73 % 0 % 1006,7 hPa 0,0 l/m 18,5 km/h (3 Bft) 0 min 6,7 km/h (2 Bft)
01.04.2010 10:52 13,8 C 5,9 C 0,2 UV-I 0,0 C 45 % 74 % 0 % 1006,8 hPa 0,0 l/m 17,3 km/h (3 Bft) 0 min 17,3 km/h (3 Bft)
01.04.2010 10:54 13,8 C 5,9 C 0,2 UV-I 0,0 C 45 % 73 % 0 % 1006,8 hPa 0,0 l/m 17,7 km/h (3 Bft) 0 min 23,8 km/h (4 Bft)
01.04.2010 10:56 13,9 C 5,8 C 0,5 UV-I 0,0 C 45 % 73 % 0 % 1006,8 hPa 0,0 l/m 16,5 km/h (3 Bft) 0 min 8,2 km/h (2 Bft)
01.04.2010 10:58 13,8 C 5,9 C 0,5 UV-I 0,0 C 45 % 73 % 0 % 1006,8 hPa 0,0 l/m 16,5 km/h (3 Bft) 0 min 15,6 km/h (3 Bft)
01.04.2010 11:02 13,9 C 5,9 C 0,8 UV-I 0,0 C 45 % 72 % 0 % 1006,8 hPa 0,0 l/m 17,7 km/h (3 Bft) 0 min 10,8 km/h (2 Bft)
01.04.2010 11:04 13,9 C 5,9 C 0,8 UV-I 0,0 C 45 % 72 % 0 % 1006,8 hPa 0,0 l/m 17,7 km/h (3 Bft) 0 min 8,2 km/h (2 Bft)
01.04.2010 11:06 13,9 C 6,0 C 1,4 UV-I 0,0 C 45 % 72 % 0 % 1006,8 hPa 0,0 l/m 16,9 km/h (3 Bft) 0 min 16,1 km/h (3 Bft)
01.04.2010 11:10 13,8 C 6,0 C 2,2 UV-I 0,0 C 45 % 72 % 0 % 1006,8 hPa 0,0 l/m 16,9 km/h (3 Bft) 0 min 7,9 km/h (2 Bft)
01.04.2010 11:12 13,8 C 6,1 C 2,2 UV-I 0,1 C 45 % 72 % 3 % 1007,1 hPa 0,0 l/m 15,7 km/h (3 Bft) 0 min 3,6 km/h (1 Bft)
01.04.2010 11:14 13,9 C 6,1 C 2,2 UV-I 1,3 C 45 % 72 % 37 % 1007,1 hPa 0,0 l/m 15,3 km/h (3 Bft) 0 min 16,4 km/h (3 Bft)
01.04.2010 11:16 13,9 C 6,2 C 3,6 UV-I 1,4 C 45 % 72 % 40 % 1007,1 hPa 0,0 l/m 15,3 km/h (3 Bft) 0 min 18,3 km/h (3 Bft)
01.04.2010 11:20 13,9 C 6,4 C 6,8 UV-I 2,8 C 45 % 72 % 80 % 1007,1 hPa 0,0 l/m 14,9 km/h (3 Bft) 0 min 12,8 km/h (3 Bft)
01.04.2010 11:22 13,9 C 6,5 C 6,8 UV-I 3,9 C 45 % 73 % 100 % 1007,1 hPa 0,0 l/m 13,7 km/h (3 Bft) 2 min 6,7 km/h (2 Bft)
01.04.2010 11:24 13,9 C 6,7 C 6,8 UV-I 4,0 C 45 % 71 % 100 % 1007,1 hPa 0,0 l/m 14,1 km/h (3 Bft) 2 min 14,4 km/h (3 Bft)
01.04.2010 11:26 13,9 C 6,7 C 4,3 UV-I 4,1 C 45 % 71 % 100 % 1007,1 hPa 0,0 l/m 14,1 km/h (3 Bft) 2 min 14,7 km/h (3 Bft)
01.04.2010 11:30 13,9 C 6,8 C 3,2 UV-I 3,9 C 45 % 71 % 100 % 1007,1 hPa 0,0 l/m 15,7 km/h (3 Bft) 2 min 22,9 km/h (4 Bft)
01.04.2010 11:32 13,9 C 6,9 C 3,2 UV-I 3,3 C 45 % 71 % 94 % 1007,6 hPa 0,0 l/m 15,7 km/h (3 Bft) 2 min 13,7 km/h (3 Bft)
01.04.2010 11:34 13,9 C 6,9 C 3,2 UV-I 2,4 C 45 % 70 % 69 % 1007,6 hPa 0,0 l/m 16,9 km/h (3 Bft) 0 min 13,0 km/h (3 Bft)
01.04.2010 11:36 13,9 C 6,9 C 1,4 UV-I 1,6 C 45 % 69 % 46 % 1007,6 hPa 0,0 l/m 17,3 km/h (3 Bft) 0 min 18,3 km/h (3 Bft)
01.04.2010 11:38 13,9 C 6,9 C 1,4 UV-I 1,4 C 45 % 69 % 40 % 1007,6 hPa 0,0 l/m 16,5 km/h (3 Bft) 0 min 5,5 km/h (1 Bft)
01.04.2010 11:40 13,9 C 6,9 C 2,5 UV-I 1,6 C 45 % 69 % 46 % 1007,6 hPa 0,0 l/m 15,7 km/h (3 Bft) 0 min 14,9 km/h (3 Bft)
01.04.2010 11:42 13,9 C 6,9 C 2,5 UV-I 1,4 C 45 % 68 % 40 % 1007,6 hPa 0,0 l/m 16,9 km/h (3 Bft) 0 min 17,1 km/h (3 Bft)
01.04.2010 11:44 13,8 C 7,1 C 2,5 UV-I 1,7 C 45 % 66 % 49 % 1007,6 hPa 0,0 l/m 19,3 km/h (3 Bft) 0 min 13,7 km/h (3 Bft)
01.04.2010 11:46 13,8 C 7,1 C 10,2 UV-I 2,5 C 44 % 67 % 71 % 1007,6 hPa 0,0 l/m 19,3 km/h (3 Bft) 0 min 16,8 km/h (3 Bft)
01.04.2010 11:48 14,0 C 7,3 C 10,2 UV-I 2,7 C 45 % 66 % 77 % 1007,6 hPa 0,0 l/m 18,9 km/h (3 Bft) 0 min 12,3 km/h (3 Bft)
01.04.2010 11:50 14,0 C 7,3 C 7,1 UV-I 2,8 C 45 % 65 % 80 % 1007,6 hPa 0,0 l/m 21,7 km/h (4 Bft) 0 min 17,8 km/h (3 Bft)
01.04.2010 11:54 14,0 C 7,2 C 7,1 UV-I 2,8 C 44 % 65 % 80 % 1007,8 hPa 0,0 l/m 20,9 km/h (4 Bft) 0 min 23,6 km/h (4 Bft)
01.04.2010 11:56 13,9 C 7,3 C 9,3 UV-I 3,3 C 44 % 65 % 94 % 1007,8 hPa 0,0 l/m 21,7 km/h (4 Bft) 2 min 13,0 km/h (3 Bft)
01.04.2010 11:58 13,9 C 7,4 C 9,3 UV-I 2,7 C 44 % 66 % 77 % 1007,8 hPa 0,0 l/m 21,7 km/h (4 Bft) 0 min 9,4 km/h (2 Bft)
01.04.2010 12:00 14,1 C 7,3 C 2,9 UV-I 2,2 C 44 % 66 % 63 % 1007,8 hPa 0,0 l/m 21,3 km/h (4 Bft) 0 min 25,3 km/h (4 Bft)
01.04.2010 12:02 14,1 C 7,3 C 2,9 UV-I 2,1 C 44 % 66 % 60 % 1007,8 hPa 0,0 l/m 19,7 km/h (3 Bft) 0 min 6,3 km/h (2 Bft)
01.04.2010 12:04 14,1 C 7,3 C 2,9 UV-I 1,6 C 44 % 66 % 46 % 1007,8 hPa 0,0 l/m 19,7 km/h (3 Bft) 0 min 6,3 km/h (2 Bft)
01.04.2010 12:06 14,1 C 7,3 C 2,9 UV-I 0,9 C 44 % 66 % 26 % 1007,8 hPa 0,0 l/m 18,9 km/h (3 Bft) 0 min 6,5 km/h (2 Bft)
01.04.2010 12:08 14,1 C 7,2 C 2,9 UV-I 0,6 C 44 % 66 % 17 % 1007,8 hPa 0,0 l/m 17,3 km/h (3 Bft) 0 min 15,6 km/h (3 Bft)
01.04.2010 12:10 14,1 C 7,3 C 2,5 UV-I 0,6 C 44 % 66 % 17 % 1007,8 hPa 0,0 l/m 17,7 km/h (3 Bft) 0 min 15,2 km/h (3 Bft)
01.04.2010 12:14 13,9 C 7,3 C 2,5 UV-I 0,5 C 44 % 66 % 14 % 1008,1 hPa 0,0 l/m 16,5 km/h (3 Bft) 0 min 21,2 km/h (4 Bft)
01.04.2010 12:16 13,9 C 7,2 C 3,4 UV-I 0,6 C 44 % 65 % 17 % 1008,1 hPa 0,0 l/m 16,9 km/h (3 Bft) 0 min 16,8 km/h (3 Bft)
01.04.2010 12:18 14,1 C 7,2 C 3,4 UV-I 0,1 C 44 % 64 % 3 % 1008,1 hPa 0,0 l/m 17,7 km/h (3 Bft) 0 min 11,1 km/h (2 Bft)
01.04.2010 12:20 14,1 C 7,2 C 4,1 UV-I 0,4 C 44 % 64 % 11 % 1008,1 hPa 0,0 l/m 18,9 km/h (3 Bft) 0 min 16,6 km/h (3 Bft)
01.04.2010 12:22 14,1 C 7,3 C 4,1 UV-I 0,2 C 44 % 64 % 6 % 1008,1 hPa 0,0 l/m 20,1 km/h (4 Bft) 0 min 8,7 km/h (2 Bft)
01.04.2010 12:24 14,1 C 7,2 C 4,1 UV-I 0,6 C 44 % 65 % 17 % 1008,1 hPa 0,0 l/m 20,1 km/h (4 Bft) 0 min 20,0 km/h (4 Bft)
01.04.2010 12:28 14,2 C 7,3 C 4,5 UV-I 0,4 C 44 % 64 % 11 % 1008,1 hPa 0,0 l/m 19,7 km/h (3 Bft) 0 min 20,9 km/h (4 Bft)
01.04.2010 12:30 14,2 C 7,3 C 2,8 UV-I 0,4 C 43 % 64 % 11 % 1008,1 hPa 0,0 l/m 18,9 km/h (3 Bft) 0 min 9,1 km/h (2 Bft)
01.04.2010 12:32 14,2 C 7,3 C 2,8 UV-I 0,4 C 43 % 64 % 11 % 1007,8 hPa 0,0 l/m 17,3 km/h (3 Bft) 0 min 14,0 km/h (3 Bft)
01.04.2010 12:34 14,2 C 7,3 C 2,8 UV-I 0,4 C 43 % 64 % 11 % 1007,8 hPa 0,0 l/m 18,1 km/h (3 Bft) 0 min 13,5 km/h (3 Bft)
01.04.2010 12:36 14,2 C 7,3 C 3,5 UV-I 0,3 C 43 % 63 % 9 % 1007,8 hPa 0,0 l/m 18,9 km/h (3 Bft) 0 min 18,5 km/h (3 Bft)
01.04.2010 12:38 14,2 C 7,5 C 8,8 UV-I 0,0 C 43 % 63 % 0 % 1007,8 hPa 0,0 l/m 20,5 km/h (4 Bft) 0 min 32,7 km/h (5 Bft)
01.04.2010 12:43 14,1 C 7,7 C 8,8 UV-I 2,4 C 43 % 61 % 69 % 1007,8 hPa 0,0 l/m 21,3 km/h (4 Bft) 0 min 15,4 km/h (3 Bft)
01.04.2010 12:48 14,3 C 7,9 C 8,4 UV-I 3,1 C 43 % 62 % 89 % 1007,8 hPa 0,0 l/m 19,3 km/h (3 Bft) 2 min 16,6 km/h (3 Bft)
01.04.2010 12:53 14,4 C 8,3 C 8,4 UV-I 3,0 C 43 % 63 % 86 % 1008,5 hPa 0,0 l/m 16,5 km/h (3 Bft) 2 min 5,3 km/h (1 Bft)
01.04.2010 12:58 14,4 C 8,2 C 3,0 UV-I 3,3 C 43 % 60 % 94 % 1008,5 hPa 0,0 l/m 16,5 km/h (3 Bft) 2 min 14,7 km/h (3 Bft)
01.04.2010 12:59 14,4 C 8,2 C 3,0 UV-I 3,3 C 43 % 60 % 94 % 1008,5 hPa 0,0 l/m 16,5 km/h (3 Bft) 1 min 14,7 km/h (3 Bft)
01.04.2010 13:03 14,3 C 8,1 C 3,0 UV-I 1,3 C 43 % 58 % 37 % 1008,5 hPa 0,0 l/m 18,5 km/h (3 Bft) 0 min 11,1 km/h (2 Bft)
01.04.2010 13:06 14,3 C 8,0 C 0,8 UV-I 0,8 C 43 % 58 % 23 % 1008,5 hPa 0,0 l/m 18,9 km/h (3 Bft) 0 min 9,1 km/h (2 Bft)
01.04.2010 13:08 14,3 C 8,0 C 0,8 UV-I 0,3 C 42 % 59 % 9 % 1008,5 hPa 0,0 l/m 18,5 km/h (3 Bft) 0 min 11,5 km/h (2 Bft)
01.04.2010 13:12 14,5 C 8,0 C 1,2 UV-I 0,0 C 42 % 61 % 0 % 1008,2 hPa 0,0 l/m 16,9 km/h (3 Bft) 0 min 8,9 km/h (2 Bft)
01.04.2010 13:14 14,4 C 8,1 C 1,2 UV-I 0,0 C 42 % 60 % 0 % 1008,2 hPa 0,0 l/m 14,9 km/h (3 Bft) 0 min 6,7 km/h (2 Bft)
01.04.2010 13:16 14,4 C 8,0 C 2,0 UV-I 0,2 C 42 % 61 % 6 % 1008,2 hPa 0,0 l/m 13,7 km/h (3 Bft) 0 min 7,5 km/h (2 Bft)
01.04.2010 13:18 14,4 C 8,0 C 2,0 UV-I 0,0 C 42 % 60 % 0 % 1008,2 hPa 0,0 l/m 14,5 km/h (3 Bft) 0 min 11,3 km/h (2 Bft)
01.04.2010 13:20 14,4 C 8,0 C 1,4 UV-I 0,0 C 42 % 60 % 0 % 1008,2 hPa 0,0 l/m 14,9 km/h (3 Bft) 0 min 14,4 km/h (3 Bft)
01.04.2010 13:22 14,6 C 7,9 C 1,4 UV-I 0,0 C 42 % 60 % 0 % 1008,2 hPa 0,0 l/m 14,1 km/h (3 Bft) 0 min 7,7 km/h (2 Bft)
01.04.2010 13:24 14,4 C 7,9 C 1,4 UV-I 0,0 C 42 % 61 % 0 % 1008,2 hPa 0,0 l/m 14,5 km/h (3 Bft) 0 min 13,0 km/h (3 Bft)
01.04.2010 13:26 14,4 C 7,9 C 0,8 UV-I 0,0 C 42 % 62 % 0 % 1008,2 hPa 0,0 l/m 16,1 km/h (3 Bft) 0 min 13,0 km/h (3 Bft)
01.04.2010 13:28 14,4 C 7,7 C 0,8 UV-I 0,0 C 42 % 63 % 0 % 1008,2 hPa 0,0 l/m 16,5 km/h (3 Bft) 0 min 9,6 km/h (2 Bft)
01.04.2010 13:30 14,4 C 7,7 C 1,3 UV-I 0,0 C 42 % 63 % 0 % 1008,2 hPa 0,0 l/m 16,5 km/h (3 Bft) 0 min 17,1 km/h (3 Bft)
01.04.2010 13:32 14,4 C 7,5 C 1,3 UV-I 0,0 C 42 % 64 % 0 % 1009,1 hPa 0,0 l/m 16,5 km/h (3 Bft) 0 min 15,2 km/h (3 Bft)
01.04.2010 13:34 14,4 C 7,6 C 1,3 UV-I 0,0 C 42 % 64 % 0 % 1009,1 hPa 0,0 l/m 17,7 km/h (3 Bft) 0 min 10,6 km/h (2 Bft)
01.04.2010 13:36 14,4 C 7,5 C 2,0 UV-I 0,0 C 42 % 64 % 0 % 1009,1 hPa 0,1 l/m 18,1 km/h (3 Bft) 0 min 8,2 km/h (2 Bft)
01.04.2010 13:38 14,6 C 7,5 C 2,0 UV-I 0,0 C 43 % 65 % 0 % 1009,1 hPa 0,0 l/m 17,3 km/h (3 Bft) 0 min 15,2 km/h (3 Bft)
01.04.2010 13:40 14,4 C 7,4 C 2,5 UV-I 0,0 C 43 % 64 % 0 % 1009,1 hPa 0,0 l/m 17,3 km/h (3 Bft) 0 min 12,3 km/h (3 Bft)
01.04.2010 13:42 14,6 C 7,4 C 2,5 UV-I 0,0 C 43 % 65 % 0 % 1009,1 hPa 0,0 l/m 16,5 km/h (3 Bft) 0 min 8,7 km/h (2 Bft)
01.04.2010 13:44 14,6 C 7,5 C 2,5 UV-I 0,0 C 43 % 65 % 0 % 1009,1 hPa 0,0 l/m 15,3 km/h (3 Bft) 0 min 15,9 km/h (3 Bft)
01.04.2010 13:46 14,6 C 7,6 C 3,9 UV-I 0,0 C 43 % 64 % 0 % 1009,1 hPa 0,0 l/m 14,5 km/h (3 Bft) 0 min 18,8 km/h (3 Bft)
01.04.2010 13:48 14,6 C 7,6 C 3,9 UV-I 0,6 C 43 % 64 % 17 % 1009,1 hPa 0,0 l/m 14,9 km/h (3 Bft) 0 min 11,8 km/h (2 Bft)
01.04.2010 13:50 14,7 C 7,7 C 4,1 UV-I 0,8 C 43 % 63 % 23 % 1009,1 hPa 0,0 l/m 15,7 km/h (3 Bft) 0 min 9,1 km/h (2 Bft)
01.04.2010 13:52 14,7 C 7,8 C 4,1 UV-I 0,7 C 43 % 62 % 20 % 1009,1 hPa 0,0 l/m 16,1 km/h (3 Bft) 0 min 10,1 km/h (2 Bft)
01.04.2010 13:54 14,7 C 7,8 C 4,1 UV-I 0,7 C 43 % 61 % 20 % 1009,1 hPa 0,0 l/m 17,7 km/h (3 Bft) 0 min 40,4 km/h (6 Bft)
01.04.2010 13:56 14,6 C 7,9 C 3,3 UV-I 0,3 C 42 % 61 % 9 % 1009,1 hPa 0,0 l/m 18,9 km/h (3 Bft) 0 min 13,2 km/h (3 Bft)
01.04.2010 13:58 14,8 C 7,7 C 3,3 UV-I 0,0 C 42 % 62 % 0 % 1009,1 hPa 0,0 l/m 19,3 km/h (3 Bft) 0 min 10,1 km/h (2 Bft)
01.04.2010 14:00 14,8 C 7,6 C 1,3 UV-I 0,0 C 42 % 63 % 0 % 1009,1 hPa 0,0 l/m 19,7 km/h (3 Bft) 0 min 40,4 km/h (6 Bft)
01.04.2010 14:02 14,8 C 7,6 C 1,3 UV-I 0,0 C 42 % 65 % 0 % 1009,1 hPa 0,0 l/m 20,9 km/h (4 Bft) 0 min 16,8 km/h (3 Bft)
01.04.2010 14:04 14,8 C 7,4 C 1,3 UV-I 0,0 C 42 % 66 % 0 % 1009,1 hPa 0,0 l/m 20,1 km/h (4 Bft) 0 min 8,9 km/h (2 Bft)
01.04.2010 14:06 14,8 C 7,5 C 4,0 UV-I 0,0 C 42 % 68 % 0 % 1009,1 hPa 0,0 l/m 18,1 km/h (3 Bft) 0 min 14,4 km/h (3 Bft)
01.04.2010 14:08 14,8 C 7,4 C 4,0 UV-I 0,7 C 43 % 68 % 20 % 1009,1 hPa 0,1 l/m 15,7 km/h (3 Bft) 0 min 4,6 km/h (1 Bft)
01.04.2010 14:10 14,8 C 7,5 C 8,0 UV-I 1,8 C 43 % 68 % 51 % 1009,1 hPa 0,0 l/m 14,5 km/h (3 Bft) 0 min 8,7 km/h (2 Bft)
01.04.2010 14:12 15,0 C 7,6 C 8,0 UV-I 2,5 C 43 % 68 % 71 % 1009,9 hPa 0,0 l/m 13,3 km/h (3 Bft) 0 min 9,4 km/h (2 Bft)
01.04.2010 14:14 15,1 C 7,7 C 8,0 UV-I 3,2 C 43 % 67 % 91 % 1009,9 hPa 0,0 l/m 12,4 km/h (3 Bft) 2 min 9,6 km/h (2 Bft)
01.04.2010 14:16 15,1 C 7,8 C 7,7 UV-I 3,5 C 43 % 68 % 100 % 1009,9 hPa 0,0 l/m 11,6 km/h (2 Bft) 2 min 11,5 km/h (2 Bft)
01.04.2010 14:18 15,2 C 8,0 C 7,7 UV-I 3,6 C 43 % 65 % 100 % 1009,9 hPa 0,0 l/m 14,1 km/h (3 Bft) 2 min 18,5 km/h (3 Bft)
01.04.2010 14:20 15,3 C 8,1 C 8,2 UV-I 3,7 C 43 % 62 % 100 % 1009,9 hPa 0,0 l/m 17,3 km/h (3 Bft) 2 min 18,0 km/h (3 Bft)
01.04.2010 14:24 15,4 C 8,4 C 8,2 UV-I 3,8 C 42 % 62 % 100 % 1009,9 hPa 0,0 l/m 18,5 km/h (3 Bft) 2 min 13,5 km/h (3 Bft)
01.04.2010 14:26 15,5 C 8,4 C 8,7 UV-I 3,9 C 42 % 60 % 100 % 1009,9 hPa 0,0 l/m 20,9 km/h (4 Bft) 2 min 26,7 km/h (4 Bft)
01.04.2010 14:28 15,4 C 8,7 C 8,7 UV-I 4,1 C 42 % 61 % 100 % 1009,9 hPa 0,0 l/m 20,1 km/h (4 Bft) 2 min 9,9 km/h (2 Bft)
01.04.2010 14:30 15,6 C 8,7 C 6,2 UV-I 4,6 C 42 % 59 % 100 % 1009,9 hPa 0,0 l/m 17,7 km/h (3 Bft) 2 min 15,4 km/h (3 Bft)
01.04.2010 14:32 15,6 C 8,9 C 6,2 UV-I 4,2 C 41 % 60 % 100 % 1012,1 hPa 0,0 l/m 16,1 km/h (3 Bft) 2 min 11,8 km/h (2 Bft)
01.04.2010 14:34 15,7 C 8,9 C 6,2 UV-I 4,0 C 41 % 59 % 100 % 1012,1 hPa 0,0 l/m 16,1 km/h (3 Bft) 2 min 9,1 km/h (2 Bft)
01.04.2010 14:36 15,6 C 8,8 C 5,9 UV-I 4,0 C 41 % 58 % 100 % 1012,1 hPa 0,0 l/m 15,7 km/h (3 Bft) 2 min 15,4 km/h (3 Bft)
01.04.2010 14:38 15,6 C 8,8 C 5,9 UV-I 3,5 C 41 % 57 % 100 % 1012,1 hPa 0,0 l/m 16,1 km/h (3 Bft) 2 min 18,3 km/h (3 Bft)
01.04.2010 14:40 15,6 C 8,8 C 3,8 UV-I 2,7 C 41 % 56 % 77 % 1012,1 hPa 0,0 l/m 16,5 km/h (3 Bft) 0 min 22,1 km/h (4 Bft)
01.04.2010 14:42 15,6 C 8,9 C 3,8 UV-I 2,5 C 40 % 56 % 71 % 1012,1 hPa 0,0 l/m 16,9 km/h (3 Bft) 0 min 8,9 km/h (2 Bft)
01.04.2010 14:44 15,6 C 8,9 C 3,8 UV-I 2,0 C 40 % 55 % 57 % 1012,1 hPa 0,0 l/m 18,1 km/h (3 Bft) 0 min 13,7 km/h (3 Bft)
01.04.2010 14:46 15,8 C 8,8 C 5,5 UV-I 2,1 C 40 % 56 % 60 % 1012,1 hPa 0,0 l/m 17,3 km/h (3 Bft) 0 min 5,1 km/h (1 Bft)
01.04.2010 14:48 15,8 C 9,1 C 5,5 UV-I 2,8 C 40 % 57 % 80 % 1012,1 hPa 0,0 l/m 16,5 km/h (3 Bft) 0 min 12,0 km/h (2 Bft)
01.04.2010 14:50 15,8 C 9,0 C 8,9 UV-I 3,6 C 40 % 58 % 100 % 1012,1 hPa 0,0 l/m 15,3 km/h (3 Bft) 2 min 13,7 km/h (3 Bft)
01.04.2010 14:52 15,9 C 9,2 C 8,9 UV-I 3,9 C 40 % 57 % 100 % 1013,3 hPa 0,0 l/m 14,9 km/h (3 Bft) 2 min 9,4 km/h (2 Bft)
01.04.2010 14:54 15,9 C 9,1 C 8,9 UV-I 3,0 C 40 % 55 % 86 % 1013,3 hPa 0,0 l/m 15,7 km/h (3 Bft) 2 min 15,9 km/h (3 Bft)
01.04.2010 14:56 15,9 C 9,1 C 1,6 UV-I 2,3 C 40 % 56 % 66 % 1013,3 hPa 0,0 l/m 15,3 km/h (3 Bft) 0 min 11,5 km/h (2 Bft)
01.04.2010 14:58 15,9 C 9,0 C 1,6 UV-I 1,6 C 40 % 56 % 46 % 1013,3 hPa 0,0 l/m 16,5 km/h (3 Bft) 0 min 9,6 km/h (2 Bft)
01.04.2010 15:00 15,9 C 8,9 C 1,0 UV-I 1,0 C 39 % 56 % 29 % 1013,3 hPa 0,0 l/m 17,3 km/h (3 Bft) 0 min 16,1 km/h (3 Bft)
01.04.2010 15:02 15,9 C 8,8 C 1,0 UV-I 0,7 C 39 % 56 % 20 % 1013,3 hPa 0,0 l/m 17,3 km/h (3 Bft) 0 min 7,7 km/h (2 Bft)
01.04.2010 15:04 15,8 C 8,9 C 1,0 UV-I 0,3 C 39 % 56 % 9 % 1013,3 hPa 0,0 l/m 17,7 km/h (3 Bft) 0 min 18,5 km/h (3 Bft)
01.04.2010 15:06 15,8 C 9,0 C 6,7 UV-I 1,0 C 39 % 56 % 29 % 1013,3 hPa 0,0 l/m 16,5 km/h (3 Bft) 0 min 8,4 km/h (2 Bft)
01.04.2010 15:08 15,8 C 9,1 C 6,7 UV-I 2,1 C 39 % 57 % 60 % 1013,3 hPa 0,0 l/m 16,1 km/h (3 Bft) 0 min 8,4 km/h (2 Bft)
01.04.2010 15:10 15,9 C 9,3 C 10,3 UV-I 3,1 C 40 % 57 % 89 % 1013,3 hPa 0,0 l/m 14,9 km/h (3 Bft) 2 min 11,8 km/h (2 Bft)
01.04.2010 15:12 15,9 C 9,5 C 10,3 UV-I 3,6 C 40 % 56 % 100 % 1011,2 hPa 0,0 l/m 14,9 km/h (3 Bft) 2 min 12,8 km/h (3 Bft)
01.04.2010 15:14 15,8 C 9,6 C 10,3 UV-I 4,1 C 40 % 54 % 100 % 1011,2 hPa 0,0 l/m 14,5 km/h (3 Bft) 2 min 9,6 km/h (2 Bft)
01.04.2010 15:16 15,8 C 9,6 C 10,4 UV-I 4,5 C 39 % 54 % 100 % 1011,2 hPa 0,0 l/m 14,9 km/h (3 Bft) 2 min 18,5 km/h (3 Bft)
01.04.2010 15:18 16,0 C 9,8 C 10,4 UV-I 4,5 C 39 % 54 % 100 % 1011,2 hPa 0,0 l/m 16,1 km/h (3 Bft) 2 min 17,3 km/h (3 Bft)
01.04.2010 15:20 16,0 C 9,9 C 8,4 UV-I 4,7 C 39 % 53 % 100 % 1011,2 hPa 0,0 l/m 16,5 km/h (3 Bft) 2 min 14,9 km/h (3 Bft)
01.04.2010 15:22 16,0 C 9,9 C 8,4 UV-I 4,3 C 39 % 54 % 100 % 1011,2 hPa 0,0 l/m 16,5 km/h (3 Bft) 2 min 8,9 km/h (2 Bft)
01.04.2010 15:24 15,9 C 9,9 C 8,4 UV-I 3,9 C 39 % 54 % 100 % 1011,2 hPa 0,0 l/m 16,9 km/h (3 Bft) 2 min 9,4 km/h (2 Bft)
01.04.2010 15:26 16,0 C 9,9 C 7,1 UV-I 4,2 C 39 % 53 % 100 % 1011,2 hPa 0,0 l/m 16,5 km/h (3 Bft) 2 min 12,8 km/h (3 Bft)
01.04.2010 15:28 15,9 C 10,0 C 7,1 UV-I 4,4 C 39 % 54 % 100 % 1011,2 hPa 0,0 l/m 15,3 km/h (3 Bft) 2 min 10,1 km/h (2 Bft)
01.04.2010 15:30 15,9 C 10,1 C 8,8 UV-I 4,6 C 39 % 54 % 100 % 1011,2 hPa 0,0 l/m 14,5 km/h (3 Bft) 2 min 12,0 km/h (2 Bft)
01.04.2010 15:32 15,9 C 10,1 C 8,8 UV-I 4,9 C 39 % 55 % 100 % 1010,8 hPa 0,0 l/m 14,1 km/h (3 Bft) 2 min 8,2 km/h (2 Bft)
01.04.2010 15:36 16,1 C 10,3 C 5,6 UV-I 4,1 C 39 % 53 % 100 % 1010,8 hPa 0,0 l/m 13,7 km/h (3 Bft) 2 min 15,4 km/h (3 Bft)
01.04.2010 15:38 16,1 C 10,3 C 5,6 UV-I 4,5 C 39 % 54 % 100 % 1010,8 hPa 0,0 l/m 14,5 km/h (3 Bft) 2 min 8,2 km/h (2 Bft)
01.04.2010 15:40 16,1 C 10,4 C 9,7 UV-I 4,7 C 39 % 54 % 100 % 1010,8 hPa 0,0 l/m 13,7 km/h (3 Bft) 2 min 9,9 km/h (2 Bft)
01.04.2010 15:42 16,1 C 10,5 C 9,7 UV-I 5,0 C 39 % 53 % 100 % 1010,8 hPa 0,0 l/m 13,7 km/h (3 Bft) 2 min 9,9 km/h (2 Bft)
01.04.2010 15:44 16,2 C 10,5 C 9,7 UV-I 5,3 C 39 % 53 % 100 % 1010,8 hPa 0,0 l/m 14,5 km/h (3 Bft) 2 min 11,1 km/h (2 Bft)
01.04.2010 15:46 16,2 C 10,5 C 8,4 UV-I 5,2 C 39 % 53 % 100 % 1010,8 hPa 0,0 l/m 14,9 km/h (3 Bft) 2 min 9,1 km/h (2 Bft)
01.04.2010 15:48 16,2 C 10,5 C 8,4 UV-I 4,6 C 39 % 51 % 100 % 1010,8 hPa 0,0 l/m 13,7 km/h (3 Bft) 2 min 12,3 km/h (3 Bft)
01.04.2010 15:50 16,2 C 10,5 C 1,3 UV-I 3,9 C 39 % 51 % 100 % 1010,8 hPa 0,0 l/m 14,1 km/h (3 Bft) 2 min 7,2 km/h (2 Bft)
01.04.2010 15:52 16,2 C 10,4 C 1,3 UV-I 3,0 C 39 % 52 % 86 % 1011,2 hPa 0,0 l/m 13,7 km/h (3 Bft) 2 min 9,6 km/h (2 Bft)
01.04.2010 15:54 16,1 C 10,3 C 1,3 UV-I 2,0 C 39 % 53 % 57 % 1011,2 hPa 0,0 l/m 14,1 km/h (3 Bft) 0 min 11,1 km/h (2 Bft)
01.04.2010 15:58 16,1 C 9,7 C 0,0 UV-I 0,4 C 39 % 56 % 11 % 1011,2 hPa 0,0 l/m 14,9 km/h (3 Bft) 0 min 22,4 km/h (4 Bft)
01.04.2010 16:00 15,9 C 9,6 C 0,0 UV-I 0,0 C 39 % 56 % 0 % 1011,2 hPa 0,0 l/m 14,1 km/h (3 Bft) 0 min 9,6 km/h (2 Bft)
01.04.2010 16:02 16,0 C 9,5 C 0,0 UV-I 0,0 C 39 % 58 % 0 % 1011,2 hPa 0,0 l/m 13,7 km/h (3 Bft) 0 min 4,8 km/h (1 Bft)
01.04.2010 16:04 16,0 C 9,3 C 0,0 UV-I 0,0 C 39 % 58 % 0 % 1011,2 hPa 0,0 l/m 11,2 km/h (2 Bft) 0 min 11,1 km/h (2 Bft)
01.04.2010 16:06 16,0 C 9,4 C 2,0 UV-I 0,0 C 39 % 59 % 0 % 1011,2 hPa 0,0 l/m 10,4 km/h (2 Bft) 0 min 8,9 km/h (2 Bft)
01.04.2010 16:08 16,0 C 9,4 C 2,0 UV-I 0,3 C 39 % 60 % 9 % 1011,2 hPa 0,0 l/m 8,4 km/h (2 Bft) 0 min 0,0 km/h (0 Bft)
01.04.2010 16:10 16,0 C 9,5 C 8,7 UV-I 1,3 C 40 % 60 % 37 % 1011,2 hPa 0,0 l/m 7,6 km/h (2 Bft) 0 min 5,8 km/h (2 Bft)
01.04.2010 16:12 16,0 C 9,5 C 8,7 UV-I 2,2 C 40 % 59 % 63 % 1011,0 hPa 0,0 l/m 7,6 km/h (2 Bft) 0 min 7,5 km/h (2 Bft)
01.04.2010 16:14 15,9 C 9,6 C 8,7 UV-I 2,5 C 40 % 59 % 71 % 1011,0 hPa 0,0 l/m 8,0 km/h (2 Bft) 0 min 5,8 km/h (2 Bft)
01.04.2010 16:16 16,0 C 9,5 C 3,5 UV-I 2,1 C 40 % 59 % 60 % 1011,0 hPa 0,0 l/m 8,8 km/h (2 Bft) 0 min 10,1 km/h (2 Bft)
01.04.2010 16:18 16,0 C 9,5 C 3,5 UV-I 1,6 C 40 % 58 % 46 % 1011,0 hPa 0,0 l/m 9,2 km/h (2 Bft) 0 min 4,3 km/h (1 Bft)
01.04.2010 16:22 16,0 C 9,3 C 0,1 UV-I 0,5 C 40 % 59 % 14 % 1011,0 hPa 0,0 l/m 8,4 km/h (2 Bft) 0 min 10,3 km/h (2 Bft)
01.04.2010 16:24 16,0 C 9,2 C 0,1 UV-I 0,3 C 40 % 59 % 9 % 1011,0 hPa 0,0 l/m 8,0 km/h (2 Bft) 0 min 6,3 km/h (2 Bft)
01.04.2010 16:26 16,0 C 9,2 C 0,0 UV-I 0,0 C 40 % 59 % 0 % 1011,0 hPa 0,0 l/m 7,6 km/h (2 Bft) 0 min 4,8 km/h (1 Bft)
01.04.2010 16:28 15,8 C 9,2 C 0,0 UV-I 0,0 C 40 % 59 % 0 % 1011,0 hPa 0,0 l/m 8,4 km/h (2 Bft) 0 min 23,1 km/h (4 Bft)
01.04.2010 16:30 15,8 C 9,1 C 0,0 UV-I 0,0 C 40 % 60 % 0 % 1011,0 hPa 0,0 l/m 10,0 km/h (2 Bft) 0 min 4,8 km/h (1 Bft)
01.04.2010 16:32 15,9 C 8,8 C 0,0 UV-I 0,0 C 40 % 62 % 0 % 1011,4 hPa 0,0 l/m 11,6 km/h (2 Bft) 0 min 9,4 km/h (2 Bft)
01.04.2010 16:34 15,8 C 8,5 C 0,0 UV-I 0,0 C 40 % 63 % 0 % 1011,4 hPa 0,0 l/m 12,0 km/h (2 Bft) 0 min 14,4 km/h (3 Bft)
01.04.2010 16:36 15,8 C 8,3 C 0,0 UV-I 0,0 C 40 % 63 % 0 % 1011,4 hPa 0,3 l/m 13,7 km/h (3 Bft) 0 min 18,8 km/h (3 Bft)
01.04.2010 16:38 15,8 C 8,2 C 0,0 UV-I 0,0 C 40 % 63 % 0 % 1011,4 hPa 0,0 l/m 14,1 km/h (3 Bft) 0 min 7,0 km/h (2 Bft)
01.04.2010 16:40 15,8 C 7,9 C 0,1 UV-I 0,0 C 40 % 63 % 0 % 1011,4 hPa 0,1 l/m 12,0 km/h (2 Bft) 0 min 7,5 km/h (2 Bft)
01.04.2010 16:42 15,8 C 7,9 C 0,1 UV-I 0,0 C 40 % 64 % 0 % 1011,4 hPa 0,1 l/m 12,4 km/h (3 Bft) 0 min 9,6 km/h (2 Bft)
01.04.2010 16:44 15,6 C 7,7 C 0,1 UV-I 0,0 C 40 % 65 % 0 % 1011,4 hPa 0,0 l/m 12,8 km/h (3 Bft) 0 min 12,0 km/h (2 Bft)
01.04.2010 16:46 15,6 C 7,7 C 1,0 UV-I 0,0 C 41 % 66 % 0 % 1011,4 hPa 0,0 l/m 11,2 km/h (2 Bft) 0 min 4,8 km/h (1 Bft)
01.04.2010 16:48 15,8 C 7,7 C 1,0 UV-I 0,0 C 41 % 67 % 0 % 1011,4 hPa 0,1 l/m 10,4 km/h (2 Bft) 0 min 5,5 km/h (1 Bft)
01.04.2010 16:50 15,8 C 7,9 C 3,7 UV-I 0,0 C 41 % 68 % 0 % 1011,4 hPa 0,0 l/m 10,0 km/h (2 Bft) 0 min 9,1 km/h (2 Bft)
01.04.2010 16:52 15,8 C 7,9 C 3,7 UV-I 1,0 C 41 % 69 % 29 % 1011,5 hPa 0,0 l/m 10,0 km/h (2 Bft) 0 min 11,3 km/h (2 Bft)
01.04.2010 16:54 15,8 C 8,0 C 3,7 UV-I 2,0 C 41 % 69 % 57 % 1011,5 hPa 0,0 l/m 9,2 km/h (2 Bft) 0 min 4,1 km/h (1 Bft)
01.04.2010 16:56 15,9 C 8,1 C 3,3 UV-I 2,1 C 41 % 69 % 60 % 1011,5 hPa 0,0 l/m 8,8 km/h (2 Bft) 0 min 8,2 km/h (2 Bft)
01.04.2010 16:58 15,8 C 8,1 C 3,3 UV-I 1,8 C 41 % 69 % 51 % 1011,5 hPa 0,0 l/m 10,8 km/h (2 Bft) 0 min 17,8 km/h (3 Bft)
01.04.2010 17:00 16,0 C 8,0 C 2,9 UV-I 2,1 C 41 % 69 % 60 % 1011,5 hPa 0,0 l/m 10,8 km/h (2 Bft) 0 min 6,3 km/h (2 Bft)
01.04.2010 17:02 16,0 C 8,1 C 2,9 UV-I 2,0 C 41 % 69 % 57 % 1011,5 hPa 0,0 l/m 10,8 km/h (2 Bft) 0 min 10,3 km/h (2 Bft)
01.04.2010 17:04 15,9 C 8,1 C 2,9 UV-I 2,5 C 41 % 69 % 71 % 1011,5 hPa 0,0 l/m 10,4 km/h (2 Bft) 0 min 6,7 km/h (2 Bft)
01.04.2010 17:06 15,9 C 8,1 C 2,8 UV-I 3,1 C 41 % 69 % 89 % 1011,5 hPa 0,0 l/m 10,4 km/h (2 Bft) 2 min 5,8 km/h (2 Bft)
01.04.2010 17:10 16,1 C 8,3 C 2,3 UV-I 3,1 C 41 % 68 % 89 % 1011,5 hPa 0,0 l/m 10,0 km/h (2 Bft) 2 min 11,1 km/h (2 Bft)
01.04.2010 17:14 16,1 C 8,1 C 2,3 UV-I 2,3 C 41 % 68 % 66 % 1011,7 hPa 0,0 l/m 9,6 km/h (2 Bft) 0 min 8,9 km/h (2 Bft)
01.04.2010 17:16 16,1 C 8,1 C 1,5 UV-I 1,8 C 41 % 68 % 51 % 1011,7 hPa 0,0 l/m 9,2 km/h (2 Bft) 0 min 5,3 km/h (1 Bft)
01.04.2010 17:18 16,1 C 8,1 C 1,5 UV-I 1,6 C 41 % 67 % 46 % 1011,7 hPa 0,0 l/m 9,6 km/h (2 Bft) 0 min 6,0 km/h (2 Bft)
01.04.2010 17:20 16,1 C 8,0 C 1,1 UV-I 1,4 C 41 % 67 % 40 % 1011,7 hPa 0,0 l/m 8,4 km/h (2 Bft) 0 min 4,3 km/h (1 Bft)
01.04.2010 17:22 16,1 C 8,0 C 1,1 UV-I 1,1 C 41 % 67 % 31 % 1011,7 hPa 0,0 l/m 8,0 km/h (2 Bft) 0 min 5,1 km/h (1 Bft)
01.04.2010 17:24 15,9 C 8,1 C 1,1 UV-I 0,7 C 41 % 66 % 20 % 1011,7 hPa 0,0 l/m 10,4 km/h (2 Bft) 0 min 22,4 km/h (4 Bft)
01.04.2010 17:26 15,9 C 8,0 C 0,4 UV-I 0,2 C 41 % 66 % 6 % 1011,7 hPa 0,0 l/m 11,6 km/h (2 Bft) 0 min 8,7 km/h (2 Bft)
01.04.2010 17:28 15,9 C 8,0 C 0,4 UV-I 0,0 C 41 % 66 % 0 % 1011,7 hPa 0,0 l/m 13,3 km/h (3 Bft) 0 min 9,9 km/h (2 Bft)
01.04.2010 17:30 15,9 C 7,9 C 0,1 UV-I 0,0 C 41 % 67 % 0 % 1011,7 hPa 0,0 l/m 13,7 km/h (3 Bft) 0 min 6,3 km/h (2 Bft)
01.04.2010 17:34 16,0 C 8,0 C 0,1 UV-I 0,0 C 41 % 67 % 0 % 1012,0 hPa 0,0 l/m 15,7 km/h (3 Bft) 0 min 24,3 km/h (4 Bft)
01.04.2010 17:36 15,8 C 7,9 C 0,0 UV-I 0,0 C 41 % 67 % 0 % 1012,0 hPa 0,0 l/m 14,9 km/h (3 Bft) 0 min 12,8 km/h (3 Bft)
01.04.2010 17:38 15,9 C 7,9 C 0,0 UV-I 0,0 C 41 % 67 % 0 % 1012,0 hPa 0,0 l/m 14,1 km/h (3 Bft) 0 min 2,9 km/h (1 Bft)
01.04.2010 17:40 15,9 C 7,8 C 0,4 UV-I 0,0 C 41 % 68 % 0 % 1012,0 hPa 0,0 l/m 13,7 km/h (3 Bft) 0 min 4,8 km/h (1 Bft)
01.04.2010 17:42 15,8 C 7,8 C 0,4 UV-I 0,0 C 41 % 67 % 0 % 1012,0 hPa 0,0 l/m 13,3 km/h (3 Bft) 0 min 10,3 km/h (2 Bft)
01.04.2010 17:44 15,8 C 7,9 C 0,4 UV-I 0,0 C 41 % 67 % 0 % 1012,0 hPa 0,0 l/m 11,6 km/h (2 Bft) 0 min 9,1 km/h (2 Bft)
01.04.2010 17:46 15,8 C 7,9 C 0,4 UV-I 0,0 C 41 % 67 % 0 % 1012,0 hPa 0,1 l/m 11,2 km/h (2 Bft) 0 min 9,9 km/h (2 Bft)
01.04.2010 17:48 15,8 C 7,9 C 0,4 UV-I 0,0 C 41 % 67 % 0 % 1012,0 hPa 0,0 l/m 10,4 km/h (2 Bft) 0 min 2,9 km/h (1 Bft)
01.04.2010 17:50 15,8 C 7,9 C 0,1 UV-I 0,0 C 41 % 66 % 0 % 1012,0 hPa 0,0 l/m 10,8 km/h (2 Bft) 0 min 12,0 km/h (2 Bft)
01.04.2010 17:52 15,6 C 7,9 C 0,1 UV-I 0,0 C 41 % 66 % 0 % 1011,4 hPa 0,0 l/m 12,0 km/h (2 Bft) 0 min 19,5 km/h (3 Bft)
01.04.2010 17:54 15,6 C 7,9 C 0,1 UV-I 0,0 C 41 % 65 % 0 % 1011,4 hPa 0,0 l/m 12,0 km/h (2 Bft) 0 min 5,8 km/h (2 Bft)
01.04.2010 17:56 15,6 C 7,9 C 0,0 UV-I 0,0 C 41 % 65 % 0 % 1011,4 hPa 0,0 l/m 12,4 km/h (3 Bft) 0 min 4,8 km/h (1 Bft)
01.04.2010 18:00 15,6 C 7,9 C 0,0 UV-I 0,0 C 41 % 65 % 0 % 1011,4 hPa 0,0 l/m 12,0 km/h (2 Bft) 0 min 7,9 km/h (2 Bft)
01.04.2010 18:02 15,6 C 7,9 C 0,0 UV-I 0,0 C 41 % 66 % 0 % 1011,4 hPa 0,0 l/m 11,2 km/h (2 Bft) 0 min 4,6 km/h (1 Bft)
01.04.2010 18:04 15,6 C 7,9 C 0,0 UV-I 0,0 C 41 % 66 % 0 % 1011,4 hPa 0,0 l/m 9,2 km/h (2 Bft) 0 min 4,6 km/h (1 Bft)
01.04.2010 18:06 15,6 C 7,9 C 0,0 UV-I 0,0 C 41 % 66 % 0 % 1011,4 hPa 0,0 l/m 8,4 km/h (2 Bft) 0 min 6,0 km/h (2 Bft)
01.04.2010 18:08 15,6 C 7,9 C 0,0 UV-I 0,0 C 41 % 67 % 0 % 1011,4 hPa 0,0 l/m 8,0 km/h (2 Bft) 0 min 9,4 km/h (2 Bft)
01.04.2010 18:10 15,4 C 7,8 C 0,0 UV-I 0,0 C 41 % 67 % 0 % 1011,4 hPa 0,0 l/m 9,2 km/h (2 Bft) 0 min 11,5 km/h (2 Bft)
01.04.2010 18:12 15,4 C 7,9 C 0,0 UV-I 0,0 C 42 % 67 % 0 % 1011,9 hPa 0,0 l/m 9,2 km/h (2 Bft) 0 min 9,9 km/h (2 Bft)
01.04.2010 18:14 15,5 C 7,9 C 0,0 UV-I 0,0 C 42 % 68 % 0 % 1011,9 hPa 0,0 l/m 10,4 km/h (2 Bft) 0 min 5,8 km/h (2 Bft)
01.04.2010 18:16 15,5 C 7,9 C 0,0 UV-I 0,0 C 42 % 68 % 0 % 1011,9 hPa 0,0 l/m 11,2 km/h (2 Bft) 0 min 6,0 km/h (2 Bft)
01.04.2010 18:18 15,3 C 7,9 C 0,0 UV-I 0,0 C 42 % 69 % 0 % 1011,9 hPa 0,0 l/m 11,6 km/h (2 Bft) 0 min 7,7 km/h (2 Bft)
01.04.2010 18:22 15,4 C 7,9 C 0,1 UV-I 0,0 C 42 % 68 % 0 % 1011,9 hPa 0,0 l/m 11,6 km/h (2 Bft) 0 min 12,0 km/h (2 Bft)
01.04.2010 18:24 15,3 C 8,0 C 0,1 UV-I 0,0 C 42 % 68 % 0 % 1011,9 hPa 0,0 l/m 10,8 km/h (2 Bft) 0 min 4,6 km/h (1 Bft)
01.04.2010 18:26 15,3 C 8,0 C 0,4 UV-I 0,0 C 42 % 68 % 0 % 1011,9 hPa 0,0 l/m 10,8 km/h (2 Bft) 0 min 7,7 km/h (2 Bft)
01.04.2010 18:28 15,4 C 8,0 C 0,4 UV-I 0,0 C 42 % 67 % 0 % 1011,9 hPa 0,0 l/m 10,4 km/h (2 Bft) 0 min 6,3 km/h (2 Bft)
01.04.2010 18:30 15,4 C 8,0 C 0,1 UV-I 0,0 C 42 % 66 % 0 % 1011,9 hPa 0,0 l/m 12,0 km/h (2 Bft) 0 min 20,5 km/h (4 Bft)
01.04.2010 18:32 15,4 C 8,0 C 0,1 UV-I 0,0 C 42 % 66 % 0 % 1012,1 hPa 0,0 l/m 11,2 km/h (2 Bft) 0 min 5,8 km/h (2 Bft)
01.04.2010 18:34 15,4 C 8,0 C 0,1 UV-I 0,0 C 42 % 66 % 0 % 1012,1 hPa 0,0 l/m 10,8 km/h (2 Bft) 0 min 4,3 km/h (1 Bft)
01.04.2010 18:36 15,4 C 8,0 C 0,1 UV-I 0,0 C 42 % 66 % 0 % 1012,1 hPa 0,0 l/m 11,2 km/h (2 Bft) 0 min 13,7 km/h (3 Bft)
01.04.2010 18:38 15,4 C 7,9 C 0,1 UV-I 0,0 C 42 % 66 % 0 % 1012,1 hPa 0,0 l/m 10,4 km/h (2 Bft) 0 min 6,3 km/h (2 Bft)
01.04.2010 18:40 15,2 C 7,9 C 0,0 UV-I 0,0 C 42 % 66 % 0 % 1012,1 hPa 0,0 l/m 10,0 km/h (2 Bft) 0 min 14,7 km/h (3 Bft)
01.04.2010 18:42 15,2 C 7,9 C 0,0 UV-I 0,0 C 42 % 66 % 0 % 1012,1 hPa 0,0 l/m 10,8 km/h (2 Bft) 0 min 10,8 km/h (2 Bft)
01.04.2010 18:44 15,2 C 7,9 C 0,0 UV-I 0,0 C 42 % 66 % 0 % 1012,1 hPa 0,0 l/m 10,8 km/h (2 Bft) 0 min 7,0 km/h (2 Bft)
01.04.2010 18:46 15,2 C 7,9 C 0,0 UV-I 0,0 C 42 % 66 % 0 % 1012,1 hPa 0,0 l/m 11,2 km/h (2 Bft) 0 min 10,6 km/h (2 Bft)
01.04.2010 18:48 15,3 C 7,8 C 0,0 UV-I 0,0 C 42 % 66 % 0 % 1012,1 hPa 0,0 l/m 12,4 km/h (3 Bft) 0 min 14,4 km/h (3 Bft)
01.04.2010 18:50 15,3 C 7,8 C 0,0 UV-I 0,0 C 42 % 66 % 0 % 1012,1 hPa 0,0 l/m 14,1 km/h (3 Bft) 0 min 13,2 km/h (3 Bft)
01.04.2010 18:52 15,1 C 7,8 C 0,0 UV-I 0,0 C 42 % 67 % 0 % 1012,4 hPa 0,0 l/m 14,5 km/h (3 Bft) 0 min 19,0 km/h (3 Bft)
01.04.2010 18:54 15,1 C 7,9 C 0,0 UV-I 0,0 C 42 % 66 % 0 % 1012,4 hPa 0,0 l/m 14,1 km/h (3 Bft) 0 min 7,0 km/h (2 Bft)
01.04.2010 18:56 15,1 C 7,7 C 0,0 UV-I 0,0 C 42 % 67 % 0 % 1012,4 hPa 0,1 l/m 13,3 km/h (3 Bft) 0 min 6,7 km/h (2 Bft)
01.04.2010 18:58 15,2 C 7,6 C 0,0 UV-I 0,0 C 42 % 66 % 0 % 1012,4 hPa 0,0 l/m 13,3 km/h (3 Bft) 0 min 9,6 km/h (2 Bft)
01.04.2010 19:00 15,2 C 7,6 C 0,0 UV-I 0,0 C 42 % 66 % 0 % 1012,4 hPa 0,2 l/m 12,8 km/h (3 Bft) 0 min 14,4 km/h (3 Bft)
01.04.2010 19:02 15,2 C 7,5 C 0,0 UV-I 0,0 C 42 % 69 % 0 % 1012,4 hPa 0,0 l/m 12,4 km/h (3 Bft) 0 min 5,5 km/h (1 Bft)
01.04.2010 19:04 15,2 C 7,3 C 0,0 UV-I 0,0 C 42 % 69 % 0 % 1012,4 hPa 0,2 l/m 10,4 km/h (2 Bft) 0 min 4,3 km/h (1 Bft)
01.04.2010 19:06 15,2 C 7,2 C 0,0 UV-I 0,0 C 42 % 70 % 0 % 1012,4 hPa 0,2 l/m 8,8 km/h (2 Bft) 0 min 0,0 km/h (0 Bft)
01.04.2010 19:08 15,2 C 7,3 C 0,0 UV-I 0,0 C 43 % 71 % 0 % 1012,4 hPa 0,0 l/m 7,6 km/h (2 Bft) 0 min 0,0 km/h (0 Bft)
01.04.2010 19:12 15,1 C 7,2 C 0,0 UV-I 0,0 C 43 % 72 % 0 % 1012,3 hPa 0,0 l/m 2,0 km/h (1 Bft) 0 min 0,0 km/h (0 Bft)
01.04.2010 19:14 14,9 C 7,2 C 0,0 UV-I 0,0 C 43 % 72 % 0 % 1012,3 hPa 0,0 l/m 1,2 km/h (1 Bft) 0 min 2,6 km/h (1 Bft)
01.04.2010 19:16 15,0 C 7,2 C 0,0 UV-I 0,0 C 43 % 73 % 0 % 1012,3 hPa 0,0 l/m 0,8 km/h (0 Bft) 0 min 4,1 km/h (1 Bft)
01.04.2010 19:18 15,0 C 7,2 C 0,0 UV-I 0,0 C 44 % 72 % 0 % 1012,3 hPa 0,1 l/m 1,2 km/h (1 Bft) 0 min 5,8 km/h (2 Bft)
01.04.2010 19:20 15,0 C 7,2 C 0,0 UV-I 0,0 C 44 % 71 % 0 % 1012,3 hPa 0,0 l/m 2,0 km/h (1 Bft) 0 min 2,6 km/h (1 Bft)
01.04.2010 19:22 14,8 C 7,2 C 0,0 UV-I 0,0 C 44 % 71 % 0 % 1012,3 hPa 0,0 l/m 2,4 km/h (1 Bft) 0 min 0,0 km/h (0 Bft)
01.04.2010 19:24 14,8 C 7,2 C 0,0 UV-I 0,0 C 44 % 71 % 0 % 1012,3 hPa 0,0 l/m 2,4 km/h (1 Bft) 0 min 0,0 km/h (0 Bft)
01.04.2010 19:26 14,8 C 7,2 C 0,0 UV-I 0,0 C 44 % 71 % 0 % 1012,3 hPa 0,0 l/m 2,8 km/h (1 Bft) 0 min 2,6 km/h (1 Bft)
01.04.2010 19:28 14,8 C 7,2 C 0,0 UV-I 0,0 C 44 % 71 % 0 % 1012,3 hPa 0,0 l/m 3,6 km/h (1 Bft) 0 min 4,3 km/h (1 Bft)
01.04.2010 19:32 14,8 C 7,3 C 0,0 UV-I 0,0 C 44 % 71 % 0 % 1012,3 hPa 0,0 l/m 3,6 km/h (1 Bft) 0 min 5,8 km/h (2 Bft)
01.04.2010 19:34 14,9 C 7,3 C 0,0 UV-I 0,0 C 44 % 71 % 0 % 1012,3 hPa 0,0 l/m 4,8 km/h (1 Bft) 0 min 5,5 km/h (1 Bft)
01.04.2010 19:38 14,9 C 7,2 C 0,0 UV-I 0,0 C 44 % 71 % 0 % 1012,3 hPa 0,0 l/m 5,6 km/h (1 Bft) 0 min 7,5 km/h (2 Bft)
01.04.2010 19:40 14,8 C 7,3 C 0,0 UV-I 0,0 C 44 % 71 % 0 % 1012,3 hPa 0,0 l/m 5,6 km/h (1 Bft) 0 min 2,4 km/h (1 Bft)
01.04.2010 19:42 14,8 C 7,2 C 0,0 UV-I 0,0 C 44 % 71 % 0 % 1012,3 hPa 0,0 l/m 5,6 km/h (1 Bft) 0 min 6,3 km/h (2 Bft)
01.04.2010 19:44 14,8 C 7,1 C 0,0 UV-I 0,0 C 44 % 71 % 0 % 1012,3 hPa 0,0 l/m 5,6 km/h (1 Bft) 0 min 2,9 km/h (1 Bft)
01.04.2010 19:46 14,8 C 7,1 C 0,0 UV-I 0,0 C 44 % 71 % 0 % 1012,3 hPa 0,0 l/m 5,2 km/h (1 Bft) 0 min 2,6 km/h (1 Bft)
01.04.2010 19:48 14,8 C 7,1 C 0,0 UV-I 0,0 C 44 % 71 % 0 % 1012,3 hPa 0,0 l/m 4,8 km/h (1 Bft) 0 min 0,0 km/h (0 Bft)
01.04.2010 19:50 14,8 C 7,1 C 0,0 UV-I 0,0 C 44 % 72 % 0 % 1012,3 hPa 0,0 l/m 3,2 km/h (1 Bft) 0 min 0,0 km/h (0 Bft)
01.04.2010 19:52 14,8 C 7,1 C 0,0 UV-I 0,0 C 44 % 71 % 0 % 1012,8 hPa 0,0 l/m 2,8 km/h (1 Bft) 0 min 0,0 km/h (0 Bft)
01.04.2010 19:54 14,8 C 7,1 C 0,0 UV-I 0,0 C 44 % 71 % 0 % 1012,8 hPa 0,0 l/m 2,0 km/h (1 Bft) 0 min 0,0 km/h (0 Bft)
01.04.2010 19:56 14,8 C 7,0 C 0,0 UV-I 0,0 C 44 % 71 % 0 % 1012,8 hPa 0,0 l/m 1,2 km/h (1 Bft) 0 min 0,0 km/h (0 Bft)
01.04.2010 19:58 14,8 C 7,0 C 0,0 UV-I 0,0 C 44 % 71 % 0 % 1012,8 hPa 0,0 l/m 0,8 km/h (0 Bft) 0 min 2,6 km/h (1 Bft)
01.04.2010 20:00 14,6 C 6,9 C 0,0 UV-I 0,0 C 44 % 71 % 0 % 1012,8 hPa 0,0 l/m 1,2 km/h (1 Bft) 0 min 0,0 km/h (0 Bft)
01.04.2010 20:02 14,6 C 6,9 C 0,0 UV-I 0,0 C 44 % 71 % 0 % 1012,8 hPa 0,0 l/m 1,2 km/h (1 Bft) 0 min 3,1 km/h (1 Bft)
01.04.2010 20:04 14,6 C 6,8 C 0,0 UV-I 0,0 C 44 % 71 % 0 % 1012,8 hPa 0,0 l/m 1,6 km/h (1 Bft) 0 min 7,5 km/h (2 Bft)
01.04.2010 20:06 14,7 C 6,9 C 0,0 UV-I 0,0 C 44 % 71 % 0 % 1012,8 hPa 0,0 l/m 2,4 km/h (1 Bft) 0 min 2,6 km/h (1 Bft)
01.04.2010 20:08 14,7 C 6,8 C 0,0 UV-I 0,0 C 44 % 71 % 0 % 1012,8 hPa 0,0 l/m 2,8 km/h (1 Bft) 0 min 0,0 km/h (0 Bft)
01.04.2010 20:10 14,7 C 6,9 C 0,0 UV-I 0,0 C 44 % 71 % 0 % 1012,8 hPa 0,0 l/m 2,8 km/h (1 Bft) 0 min 3,6 km/h (1 Bft)
01.04.2010 20:12 14,7 C 6,8 C 0,0 UV-I 0,0 C 44 % 71 % 0 % 1012,4 hPa 0,0 l/m 2,4 km/h (1 Bft) 0 min 0,0 km/h (0 Bft)
01.04.2010 20:14 14,7 C 6,8 C 0,0 UV-I 0,0 C 44 % 71 % 0 % 1012,4 hPa 0,0 l/m 2,8 km/h (1 Bft) 0 min 0,0 km/h (0 Bft)
01.04.2010 20:16 14,7 C 6,7 C 0,0 UV-I 0,0 C 45 % 71 % 0 % 1012,4 hPa 0,0 l/m 2,0 km/h (1 Bft) 0 min 0,0 km/h (0 Bft)
01.04.2010 20:18 14,6 C 6,7 C 0,0 UV-I 0,0 C 45 % 71 % 0 % 1012,4 hPa 0,0 l/m 1,6 km/h (1 Bft) 0 min 0,0 km/h (0 Bft)
01.04.2010 20:20 14,6 C 6,7 C 0,0 UV-I 0,0 C 45 % 71 % 0 % 1012,4 hPa 0,0 l/m 2,0 km/h (1 Bft) 0 min 2,4 km/h (1 Bft)
01.04.2010 20:22 14,6 C 6,6 C 0,0 UV-I 0,0 C 45 % 71 % 0 % 1012,4 hPa 0,0 l/m 1,6 km/h (1 Bft) 0 min 0,0 km/h (0 Bft)
01.04.2010 20:24 14,6 C 6,7 C 0,0 UV-I 0,0 C 45 % 71 % 0 % 1012,4 hPa 0,0 l/m 1,6 km/h (1 Bft) 0 min 4,1 km/h (1 Bft)
01.04.2010 20:28 14,6 C 6,5 C 0,0 UV-I 0,0 C 45 % 71 % 0 % 1012,4 hPa 0,0 l/m 1,2 km/h (1 Bft) 0 min 0,0 km/h (0 Bft)
01.04.2010 20:30 14,6 C 6,5 C 0,0 UV-I 0,0 C 45 % 72 % 0 % 1012,4 hPa 0,0 l/m 0,8 km/h (0 Bft) 0 min 0,0 km/h (0 Bft)
01.04.2010 20:32 14,6 C 6,4 C 0,0 UV-I 0,0 C 45 % 71 % 0 % 1013,1 hPa 0,0 l/m 1,2 km/h (1 Bft) 0 min 3,6 km/h (1 Bft)
01.04.2010 20:34 14,6 C 6,4 C 0,0 UV-I 0,0 C 45 % 72 % 0 % 1013,1 hPa 0,0 l/m 1,2 km/h (1 Bft) 0 min 0,0 km/h (0 Bft)
01.04.2010 20:36 14,6 C 6,4 C 0,0 UV-I 0,0 C 45 % 72 % 0 % 1013,1 hPa 0,0 l/m 0,8 km/h (0 Bft) 0 min 0,0 km/h (0 Bft)
01.04.2010 20:38 14,6 C 6,4 C 0,0 UV-I 0,0 C 45 % 72 % 0 % 1013,1 hPa 0,0 l/m 0,8 km/h (0 Bft) 0 min 0,0 km/h (0 Bft)
01.04.2010 20:40 14,6 C 6,3 C 0,0 UV-I 0,0 C 45 % 71 % 0 % 1013,1 hPa 0,0 l/m 0,8 km/h (0 Bft) 0 min 0,0 km/h (0 Bft)
01.04.2010 20:42 14,6 C 6,3 C 0,0 UV-I 0,0 C 45 % 72 % 0 % 1013,1 hPa 0,0 l/m 0,8 km/h (0 Bft) 0 min 0,0 km/h (0 Bft)
01.04.2010 20:44 14,4 C 6,3 C 0,0 UV-I 0,0 C 45 % 72 % 0 % 1013,1 hPa 0,0 l/m 0,0 km/h (0 Bft) 0 min 0,0 km/h (0 Bft)
01.04.2010 20:46 14,6 C 6,3 C 0,0 UV-I 0,0 C 45 % 72 % 0 % 1013,1 hPa 0,0 l/m 0,0 km/h (0 Bft) 0 min 0,0 km/h (0 Bft)
01.04.2010 20:50 14,4 C 6,1 C 0,0 UV-I 0,0 C 45 % 73 % 0 % 1013,1 hPa 0,0 l/m 0,0 km/h (0 Bft) 0 min 0,0 km/h (0 Bft)
01.04.2010 20:52 14,4 C 6,0 C 0,0 UV-I 0,0 C 45 % 73 % 0 % 1012,9 hPa 0,0 l/m 0,0 km/h (0 Bft) 0 min 0,0 km/h (0 Bft)
01.04.2010 20:54 14,4 C 6,0 C 0,0 UV-I 0,0 C 45 % 73 % 0 % 1012,9 hPa 0,0 l/m 0,0 km/h (0 Bft) 0 min 0,0 km/h (0 Bft)
01.04.2010 20:56 14,4 C 5,9 C 0,0 UV-I 0,0 C 45 % 73 % 0 % 1012,9 hPa 0,0 l/m 0,0 km/h (0 Bft) 0 min 0,0 km/h (0 Bft)
01.04.2010 20:58 14,4 C 5,9 C 0,0 UV-I 0,0 C 45 % 74 % 0 % 1012,9 hPa 0,0 l/m 0,0 km/h (0 Bft) 0 min 0,0 km/h (0 Bft)
01.04.2010 21:00 14,4 C 5,9 C 0,0 UV-I 0,0 C 45 % 74 % 0 % 1012,9 hPa 0,0 l/m 0,0 km/h (0 Bft) 0 min 0,0 km/h (0 Bft)
01.04.2010 21:02 14,5 C 5,8 C 0,0 UV-I 0,0 C 45 % 73 % 0 % 1012,9 hPa 0,0 l/m 0,0 km/h (0 Bft) 0 min 0,0 km/h (0 Bft)
01.04.2010 21:04 14,5 C 5,7 C 0,0 UV-I 0,0 C 45 % 73 % 0 % 1012,9 hPa 0,0 l/m 0,0 km/h (0 Bft) 0 min 0,0 km/h (0 Bft)
01.04.2010 21:06 14,4 C 5,7 C 0,0 UV-I 0,0 C 45 % 73 % 0 % 1012,9 hPa 0,0 l/m 0,4 km/h (0 Bft) 0 min 0,0 km/h (0 Bft)
01.04.2010 21:10 14,3 C 5,6 C 0,0 UV-I 0,0 C 45 % 73 % 0 % 1012,9 hPa 0,0 l/m 0,8 km/h (0 Bft) 0 min 4,8 km/h (1 Bft)
01.04.2010 21:12 14,5 C 5,6 C 0,0 UV-I 0,0 C 45 % 73 % 0 % 1013,3 hPa 0,0 l/m 0,4 km/h (0 Bft) 0 min 0,0 km/h (0 Bft)
01.04.2010 21:14 14,3 C 5,6 C 0,0 UV-I 0,0 C 45 % 73 % 0 % 1013,3 hPa 0,0 l/m 0,4 km/h (0 Bft) 0 min 0,0 km/h (0 Bft)
01.04.2010 21:16 14,3 C 5,5 C 0,0 UV-I 0,0 C 45 % 73 % 0 % 1013,3 hPa 0,0 l/m 0,4 km/h (0 Bft) 0 min 3,1 km/h (1 Bft)
01.04.2010 21:18 14,3 C 5,5 C 0,0 UV-I 0,0 C 45 % 73 % 0 % 1013,3 hPa 0,0 l/m 0,4 km/h (0 Bft) 0 min 0,0 km/h (0 Bft)
01.04.2010 21:20 14,3 C 5,5 C 0,0 UV-I 0,0 C 45 % 73 % 0 % 1013,3 hPa 0,0 l/m 0,8 km/h (0 Bft) 0 min 0,0 km/h (0 Bft)
01.04.2010 21:22 14,3 C 5,5 C 0,0 UV-I 0,0 C 45 % 73 % 0 % 1013,3 hPa 0,0 l/m 0,4 km/h (0 Bft) 0 min 0,0 km/h (0 Bft)
01.04.2010 21:26 14,4 C 5,5 C 0,0 UV-I 0,0 C 45 % 73 % 0 % 1013,3 hPa 0,0 l/m 0,4 km/h (0 Bft) 0 min 0,0 km/h (0 Bft)
01.04.2010 21:30 14,4 C 5,5 C 0,0 UV-I 0,0 C 45 % 73 % 0 % 1013,3 hPa 0,0 l/m 0,0 km/h (0 Bft) 0 min 0,0 km/h (0 Bft)
01.04.2010 21:32 14,4 C 5,3 C 0,0 UV-I 0,0 C 45 % 73 % 0 % 1013,4 hPa 0,0 l/m 0,0 km/h (0 Bft) 0 min 0,0 km/h (0 Bft)
01.04.2010 21:36 14,4 C 5,3 C 0,0 UV-I 0,0 C 45 % 73 % 0 % 1013,4 hPa 0,0 l/m 0,0 km/h (0 Bft) 0 min 2,4 km/h (1 Bft)
01.04.2010 21:38 14,4 C 5,3 C 0,0 UV-I 0,0 C 45 % 73 % 0 % 1013,4 hPa 0,0 l/m 0,0 km/h (0 Bft) 0 min 0,0 km/h (0 Bft)
01.04.2010 21:42 14,4 C 5,3 C 0,0 UV-I 0,0 C 45 % 73 % 0 % 1013,4 hPa 0,0 l/m 0,4 km/h (0 Bft) 0 min 0,0 km/h (0 Bft)
01.04.2010 21:46 14,4 C 5,2 C 0,0 UV-I 0,0 C 45 % 73 % 0 % 1013,4 hPa 0,0 l/m 0,4 km/h (0 Bft) 0 min 0,0 km/h (0 Bft)
01.04.2010 21:48 14,4 C 5,2 C 0,0 UV-I 0,0 C 45 % 73 % 0 % 1013,4 hPa 0,0 l/m 0,8 km/h (0 Bft) 0 min 3,6 km/h (1 Bft)
01.04.2010 21:50 14,4 C 5,2 C 0,0 UV-I 0,0 C 45 % 73 % 0 % 1013,4 hPa 0,0 l/m 0,8 km/h (0 Bft) 0 min 0,0 km/h (0 Bft)
01.04.2010 21:52 14,4 C 5,1 C 0,0 UV-I 0,0 C 45 % 73 % 0 % 1013,4 hPa 0,0 l/m 1,6 km/h (1 Bft) 0 min 6,5 km/h (2 Bft)
01.04.2010 21:54 14,4 C 5,1 C 0,0 UV-I 0,0 C 45 % 74 % 0 % 1013,4 hPa 0,0 l/m 2,0 km/h (1 Bft) 0 min 2,9 km/h (1 Bft)
01.04.2010 21:56 14,4 C 5,0 C 0,0 UV-I 0,0 C 45 % 74 % 0 % 1013,4 hPa 0,0 l/m 2,0 km/h (1 Bft) 0 min 0,0 km/h (0 Bft)
01.04.2010 21:58 14,4 C 5,1 C 0,0 UV-I 0,0 C 45 % 74 % 0 % 1013,4 hPa 0,0 l/m 2,0 km/h (1 Bft) 0 min 2,9 km/h (1 Bft)
01.04.2010 22:00 14,4 C 5,0 C 0,0 UV-I 0,0 C 45 % 75 % 0 % 1013,4 hPa 0,0 l/m 1,6 km/h (1 Bft) 0 min 0,0 km/h (0 Bft)
01.04.2010 22:02 14,4 C 4,9 C 0,0 UV-I 0,0 C 45 % 75 % 0 % 1013,4 hPa 0,0 l/m 1,6 km/h (1 Bft) 0 min 0,0 km/h (0 Bft)
01.04.2010 22:04 14,4 C 4,9 C 0,0 UV-I 0,0 C 45 % 75 % 0 % 1013,4 hPa 0,0 l/m 0,8 km/h (0 Bft) 0 min 2,4 km/h (1 Bft)
01.04.2010 22:06 14,2 C 4,9 C 0,0 UV-I 0,0 C 45 % 75 % 0 % 1013,4 hPa 0,0 l/m 0,8 km/h (0 Bft) 0 min 4,3 km/h (1 Bft)
01.04.2010 22:08 14,2 C 4,8 C 0,0 UV-I 0,0 C 45 % 76 % 0 % 1013,4 hPa 0,0 l/m 2,0 km/h (1 Bft) 0 min 2,9 km/h (1 Bft)
01.04.2010 22:12 14,4 C 4,7 C 0,0 UV-I 0,0 C 45 % 76 % 0 % 1013,3 hPa 0,0 l/m 2,4 km/h (1 Bft) 0 min 2,9 km/h (1 Bft)
01.04.2010 22:14 14,2 C 4,6 C 0,0 UV-I 0,0 C 45 % 76 % 0 % 1013,3 hPa 0,0 l/m 3,2 km/h (1 Bft) 0 min 3,1 km/h (1 Bft)
01.04.2010 22:16 14,2 C 4,7 C 0,0 UV-I 0,0 C 45 % 77 % 0 % 1013,3 hPa 0,0 l/m 3,6 km/h (1 Bft) 0 min 3,8 km/h (1 Bft)
01.04.2010 22:18 14,2 C 4,5 C 0,0 UV-I 0,0 C 45 % 77 % 0 % 1013,3 hPa 0,0 l/m 4,0 km/h (1 Bft) 0 min 3,4 km/h (1 Bft)
01.04.2010 22:20 14,3 C 4,5 C 0,0 UV-I 0,0 C 45 % 77 % 0 % 1013,3 hPa 0,0 l/m 4,8 km/h (1 Bft) 0 min 2,6 km/h (1 Bft)
01.04.2010 22:22 14,2 C 4,5 C 0,0 UV-I 0,0 C 45 % 77 % 0 % 1013,3 hPa 0,0 l/m 5,2 km/h (1 Bft) 0 min 4,6 km/h (1 Bft)
01.04.2010 22:24 14,3 C 4,5 C 0,0 UV-I 0,0 C 45 % 77 % 0 % 1013,3 hPa 0,0 l/m 6,4 km/h (2 Bft) 0 min 5,3 km/h (1 Bft)
01.04.2010 22:26 14,2 C 4,5 C 0,0 UV-I 0,0 C 45 % 77 % 0 % 1013,3 hPa 0,0 l/m 6,8 km/h (2 Bft) 0 min 7,0 km/h (2 Bft)
01.04.2010 22:28 14,3 C 4,4 C 0,0 UV-I 0,0 C 45 % 77 % 0 % 1013,3 hPa 0,0 l/m 7,6 km/h (2 Bft) 0 min 5,8 km/h (2 Bft)
01.04.2010 22:30 14,3 C 4,4 C 0,0 UV-I 0,0 C 45 % 77 % 0 % 1013,3 hPa 0,0 l/m 7,2 km/h (2 Bft) 0 min 4,3 km/h (1 Bft)
01.04.2010 22:32 14,3 C 4,4 C 0,0 UV-I 0,0 C 45 % 77 % 0 % 1013,9 hPa 0,0 l/m 7,2 km/h (2 Bft) 0 min 5,3 km/h (1 Bft)
01.04.2010 22:38 14,3 C 4,4 C 0,0 UV-I 0,0 C 45 % 77 % 0 % 1013,9 hPa 0,0 l/m 4,4 km/h (1 Bft) 0 min 3,8 km/h (1 Bft)
01.04.2010 22:40 14,3 C 4,3 C 0,0 UV-I 0,0 C 45 % 77 % 0 % 1013,9 hPa 0,0 l/m 4,0 km/h (1 Bft) 0 min 4,3 km/h (1 Bft)
01.04.2010 22:42 14,3 C 4,3 C 0,0 UV-I 0,0 C 45 % 77 % 0 % 1013,9 hPa 0,0 l/m 3,6 km/h (1 Bft) 0 min 2,6 km/h (1 Bft)
01.04.2010 22:44 14,3 C 4,3 C 0,0 UV-I 0,0 C 45 % 77 % 0 % 1013,9 hPa 0,0 l/m 3,6 km/h (1 Bft) 0 min 5,3 km/h (1 Bft)
01.04.2010 22:50 14,3 C 4,2 C 0,0 UV-I 0,0 C 45 % 77 % 0 % 1013,9 hPa 0,0 l/m 4,0 km/h (1 Bft) 0 min 4,1 km/h (1 Bft)
01.04.2010 22:54 14,3 C 4,3 C 0,0 UV-I 0,0 C 45 % 77 % 0 % 1014,2 hPa 0,0 l/m 3,6 km/h (1 Bft) 0 min 7,2 km/h (2 Bft)
01.04.2010 23:00 14,3 C 4,3 C 0,0 UV-I 0,0 C 45 % 77 % 0 % 1014,2 hPa 0,0 l/m 2,4 km/h (1 Bft) 0 min 9,9 km/h (2 Bft)
01.04.2010 23:02 14,3 C 4,3 C 0,0 UV-I 0,0 C 45 % 78 % 0 % 1014,2 hPa 0,0 l/m 2,8 km/h (1 Bft) 0 min 3,8 km/h (1 Bft)
01.04.2010 23:04 14,1 C 4,3 C 0,0 UV-I 0,0 C 45 % 78 % 0 % 1014,2 hPa 0,0 l/m 3,2 km/h (1 Bft) 0 min 2,4 km/h (1 Bft)
01.04.2010 23:08 14,3 C 4,3 C 0,0 UV-I 0,0 C 45 % 78 % 0 % 1014,2 hPa 0,0 l/m 3,2 km/h (1 Bft) 0 min 3,1 km/h (1 Bft)
01.04.2010 23:10 14,3 C 4,3 C 0,0 UV-I 0,0 C 45 % 78 % 0 % 1014,2 hPa 0,0 l/m 3,2 km/h (1 Bft) 0 min 2,4 km/h (1 Bft)
01.04.2010 23:12 14,3 C 4,3 C 0,0 UV-I 0,0 C 45 % 78 % 0 % 1014,1 hPa 0,0 l/m 2,4 km/h (1 Bft) 0 min 0,0 km/h (0 Bft)
01.04.2010 23:14 14,3 C 4,3 C 0,0 UV-I 0,0 C 45 % 78 % 0 % 1014,1 hPa 0,0 l/m 2,0 km/h (1 Bft) 0 min 0,0 km/h (0 Bft)
01.04.2010 23:16 14,3 C 4,3 C 0,0 UV-I 0,0 C 45 % 78 % 0 % 1014,1 hPa 0,0 l/m 2,4 km/h (1 Bft) 0 min 3,6 km/h (1 Bft)
01.04.2010 23:18 14,1 C 4,3 C 0,0 UV-I 0,0 C 45 % 78 % 0 % 1014,1 hPa 0,0 l/m 2,0 km/h (1 Bft) 0 min 8,7 km/h (2 Bft)
01.04.2010 23:22 14,1 C 4,3 C 0,0 UV-I 0,0 C 45 % 77 % 0 % 1014,1 hPa 0,0 l/m 2,4 km/h (1 Bft) 0 min 4,3 km/h (1 Bft)
01.04.2010 23:24 14,3 C 4,3 C 0,0 UV-I 0,0 C 45 % 77 % 0 % 1014,1 hPa 0,0 l/m 2,8 km/h (1 Bft) 0 min 2,9 km/h (1 Bft)
01.04.2010 23:26 14,1 C 4,4 C 0,0 UV-I 0,0 C 45 % 77 % 0 % 1014,1 hPa 0,0 l/m 2,4 km/h (1 Bft) 0 min 2,6 km/h (1 Bft)
01.04.2010 23:28 14,1 C 4,4 C 0,0 UV-I 0,0 C 45 % 77 % 0 % 1014,1 hPa 0,0 l/m 2,4 km/h (1 Bft) 0 min 5,5 km/h (1 Bft)
01.04.2010 23:30 14,2 C 4,4 C 0,0 UV-I 0,0 C 45 % 77 % 0 % 1014,1 hPa 0,0 l/m 3,2 km/h (1 Bft) 0 min 4,6 km/h (1 Bft)
01.04.2010 23:32 14,1 C 4,5 C 0,0 UV-I 0,0 C 45 % 77 % 0 % 1014,2 hPa 0,0 l/m 3,6 km/h (1 Bft) 0 min 8,4 km/h (2 Bft)
01.04.2010 23:36 14,2 C 4,4 C 0,0 UV-I 0,0 C 45 % 77 % 0 % 1014,2 hPa 0,0 l/m 4,0 km/h (1 Bft) 0 min 4,6 km/h (1 Bft)
01.04.2010 23:38 14,2 C 4,4 C 0,0 UV-I 0,0 C 45 % 76 % 0 % 1014,2 hPa 0,0 l/m 5,2 km/h (1 Bft) 0 min 4,3 km/h (1 Bft)
01.04.2010 23:40 14,2 C 4,4 C 0,0 UV-I 0,0 C 45 % 76 % 0 % 1014,2 hPa 0,0 l/m 4,4 km/h (1 Bft) 0 min 3,8 km/h (1 Bft)
01.04.2010 23:42 14,2 C 4,4 C 0,0 UV-I 0,0 C 45 % 76 % 0 % 1014,2 hPa 0,0 l/m 4,0 km/h (1 Bft) 0 min 3,6 km/h (1 Bft)
01.04.2010 23:44 14,2 C 4,4 C 0,0 UV-I 0,0 C 45 % 76 % 0 % 1014,2 hPa 0,0 l/m 3,6 km/h (1 Bft) 0 min 3,6 km/h (1 Bft)
01.04.2010 23:46 14,2 C 4,4 C 0,0 UV-I 0,0 C 45 % 76 % 0 % 1014,2 hPa 0,0 l/m 4,0 km/h (1 Bft) 0 min 4,1 km/h (1 Bft)
01.04.2010 23:48 14,2 C 4,4 C 0,0 UV-I 0,0 C 45 % 76 % 0 % 1014,2 hPa 0,0 l/m 2,8 km/h (1 Bft) 0 min 4,6 km/h (1 Bft)
01.04.2010 23:50 14,2 C 4,5 C 0,0 UV-I 0,0 C 45 % 76 % 0 % 1014,2 hPa 0,0 l/m 2,8 km/h (1 Bft) 0 min 0,0 km/h (0 Bft)
01.04.2010 23:54 14,2 C 4,4 C 0,0 UV-I 0,0 C 45 % 76 % 0 % 1014,4 hPa 0,0 l/m 3,6 km/h (1 Bft) 0 min 3,6 km/h (1 Bft)
01.04.2010 23:58 14,2 C 4,3 C 0,0 UV-I 0,0 C 45 % 76 % 0 % 1014,4 hPa 0,0 l/m 3,6 km/h (1 Bft) 0 min 6,5 km/h (2 Bft)
_ Min-Zeit 08:10 07:48 00:00 00:00 15:00 15:48 00:00 00:00 - 20:44 - 16:08
Minimum _ 13,6 C 3,6 C 0,0 UV-I 0,0 C 39 % 51 % 0 % 1000,7 hPa - 0,0 km/h (0 Bft) - 0,0 km/h (0 Bft)
_ Max-Zeit 15:44 15:42 15:16 15:44 00:00 00:00 11:22 23:54 16:36 11:50 11:22 13:54
Maximum _ 16,2 C 10,5 C 10,4 UV-I 5,3 C 46 % 79 % 100 % 1014,4 hPa 0,3 l/m 21,7 km/h
SW (4 Bft)
2 min 40,4 km/h
SW (6 Bft)
Durchschnitt _ 14,5 C 6,0 C 1,2 UV-I 0,5 C 44 % 71 % 13 % 1007,6 hPa #1,6 l/m 12,1 km/h (2 Bft) #1:35 h 10,3 km/h (2 Bft)
© 2012 W. Hausmann